GFSFLT2_sfc_wetblb_000.txt.gz
Wetbulb
30.95 31.78 30.84 30.88 32.61 33.18 34.02 33.66 34.12 37.67 38.46 38.76 39.14 39.46 39.94 39.98 39.94 40.40 40.93 41.71 42.59 43.55 44.26 44.96 45.41 45.86 46.31
29.21 30.04 30.33 31.42 32.20 31.66 32.40 33.01 31.55 34.91 36.71 37.72 37.81 37.96 38.04 38.34 38.74 39.40 40.11 40.16 40.34 41.12 42.10 43.18 44.06 44.85 45.47
27.45 29.74 29.99 31.63 28.83 28.78 28.38 28.63 30.24 33.56 35.58 36.18 36.68 37.01 37.53 38.20 38.99 38.08 37.51 38.34 38.99 39.66 40.29 40.93 41.94 43.02 44.19
27.83 28.25 30.61 28.41 26.82 24.88 24.28 26.56 26.29 30.02 32.55 33.93 35.35 35.78 36.48 36.15 36.05 35.96 36.15 36.92 38.08 39.07 39.59 39.79 40.62 41.75 43.32
26.40 27.67 25.65 24.39 23.23 24.54 23.54 24.83 26.53 29.34 27.36 27.70 29.10 29.07 29.44 32.66 33.12 34.33 35.23 36.56 37.73 38.99 39.04 39.34 39.76 40.73 41.91
27.51 24.57 23.60 23.71 24.20 23.73 24.54 25.03 20.25 27.19 25.75 25.51 28.00 26.72 27.93 28.97 33.22 34.47 35.16 35.87 36.83 36.83 37.68 38.56 39.04 39.97 40.43
24.35 23.70 23.59 24.69 26.74 25.55 23.54 23.13 22.79 25.46 25.11 22.96 26.15 24.62 27.07 28.69 32.46 33.35 34.31 35.08 35.77 36.39 37.30 37.63 38.16 38.70 39.20
26.30 27.38 28.54 27.63 26.21 25.76 25.63 25.33 25.41 25.12 25.62 20.56 24.05 22.78 25.37 26.41 31.61 32.92 33.76 34.60 35.40 36.52 37.73 38.53 38.61 39.21 39.08
31.84 30.89 30.43 30.59 29.60 26.57 23.35 21.52 19.51 20.84 23.97 21.86 22.13 22.34 23.81 24.55 26.75 31.89 33.37 34.45 35.01 35.52 36.73 36.93 36.94 37.62 36.59
23.29 24.61 26.39 25.98 29.49 26.21 24.67 20.20 19.51 18.61 22.96 21.44 21.84 22.87 21.41 25.32 25.61 26.91 27.69 31.93 33.48 34.45 35.01 36.15 36.91 34.27 33.13
22.23 22.98 24.23 24.78 24.77 25.21 25.46 23.69 20.88 20.14 24.42 25.25 23.57 22.89 22.46 21.84 24.76 25.43 25.89 27.76 27.29 28.19 32.07 34.33 35.76 35.96 32.26
22.04 22.36 22.01 22.20 23.46 24.24 25.13 25.17 25.49 24.54 26.00 25.97 23.74 24.12 23.09 21.79 20.37 23.29 23.05 24.55 26.15 27.04 28.58 31.97 35.05 36.89 37.82
21.43 21.23 22.31 23.36 23.99 24.06 24.99 25.38 25.70 26.30 27.68 27.69 25.59 24.43 24.02 21.92 20.87 19.87 20.60 23.72 26.56 28.15 29.96 30.67 31.67 32.54 31.36
21.60 22.41 23.29 22.82 22.65 23.79 22.65 22.85 22.64 23.52 26.82 27.59 27.09 25.97 22.52 21.02 20.54 19.24 21.33 21.56 27.02 29.40 31.24 32.03 32.89 34.03 34.51
21.54 21.21 21.58 21.82 21.94 22.94 22.91 23.04 21.26 22.36 23.26 25.31 26.63 26.14 23.75 20.27 19.53 22.19 23.18 25.24 29.55 30.89 31.64 31.69 32.66 33.92 35.67
20.43 20.12 20.41 20.71 20.25 22.51 22.57 22.30 22.05 22.81 23.14 24.08 23.59 22.86 21.29 23.31 25.92 21.80 27.86 27.88 29.64 31.87 32.13 31.22 30.73 32.67 34.21
19.47 20.53 20.64 19.37 20.62 20.29 21.21 22.39 21.77 23.82 23.38 23.53 22.71 21.14 18.52 18.47 24.13 30.54 28.54 30.04 30.03 30.58 31.99 31.62 31.20 31.94 33.84

GFSFLT2_sfc_wetblb_003.txt.gz
Wetbulb
30.12 31.17 30.72 30.75 31.86 32.73 33.99 34.10 33.50 37.15 37.41 37.54 37.56 37.96 39.06 39.81 40.07 40.80 41.14 41.96 42.21 43.21 43.65 44.27 44.93 45.29 46.00
28.77 28.72 28.76 30.04 30.57 31.14 31.68 32.12 30.29 33.36 35.43 36.09 37.05 37.52 38.08 38.52 38.90 39.24 39.78 40.28 41.04 41.81 41.97 42.50 43.36 44.36 44.72
25.64 28.68 29.38 30.03 29.81 28.87 27.72 27.81 29.33 32.56 34.33 34.80 35.87 36.79 37.10 37.39 37.73 38.27 38.51 38.03 38.14 38.75 39.45 40.47 41.23 42.02 43.35
27.73 28.31 27.48 29.85 28.39 24.94 24.16 26.17 25.71 28.66 31.23 33.13 33.99 34.32 35.04 35.61 35.85 35.56 35.37 35.92 36.87 37.71 38.21 38.61 39.19 40.63 41.57
25.91 27.12 25.17 24.31 22.99 24.49 23.66 24.76 25.81 28.16 25.46 26.19 26.90 27.74 28.52 31.86 32.37 33.50 33.97 34.91 35.99 37.31 38.08 38.71 39.24 40.02 40.95
25.49 23.69 22.60 23.05 24.05 24.23 25.05 22.50 19.78 26.85 24.56 24.72 26.56 25.35 26.66 27.76 32.19 33.55 34.54 35.11 35.45 36.12 36.86 37.64 38.26 39.09 39.26
23.52 22.72 22.47 24.66 26.81 24.49 23.57 23.61 22.83 25.20 25.12 22.67 24.89 23.37 26.01 27.63 31.81 32.77 33.80 34.47 35.05 35.60 36.39 37.29 37.89 38.28 38.54
25.75 26.84 27.67 27.17 26.28 25.76 25.01 25.22 25.38 25.06 25.17 19.69 23.15 21.99 24.53 25.52 30.87 32.27 33.22 33.92 34.65 35.32 36.14 36.73 37.40 38.31 38.78
31.73 30.83 30.47 30.61 29.55 26.46 23.01 21.10 19.21 21.09 24.10 21.70 21.97 21.90 23.49 24.07 26.32 31.61 32.82 33.64 33.82 34.14 34.81 35.27 35.97 36.61 35.96
23.15 24.23 26.36 25.95 29.51 26.10 24.27 20.19 19.65 18.47 22.84 21.26 21.87 23.27 20.99 24.87 25.05 26.23 26.53 31.07 32.24 32.93 33.37 34.73 35.70 33.44 32.65
21.94 22.95 24.11 24.59 24.64 25.12 25.34 23.48 20.68 19.98 23.97 24.49 22.80 22.03 21.49 21.60 24.28 25.31 25.58 25.72 25.33 26.66 30.23 32.30 34.06 34.68 31.70
21.59 21.98 21.60 21.76 23.08 24.08 24.97 25.15 25.59 24.36 25.67 25.45 22.84 22.75 22.05 20.87 19.80 23.78 24.55 25.23 25.08 23.94 25.23 29.66 33.64 35.59 36.60
21.02 20.17 21.33 22.62 23.29 23.62 24.70 25.14 25.08 25.57 26.71 26.28 25.30 24.58 23.99 21.71 21.05 21.42 22.59 23.35 24.73 24.74 27.61 28.85 30.05 30.38 28.37
20.53 21.23 22.11 21.64 21.57 22.93 21.94 22.04 22.19 22.62 26.31 27.71 27.71 26.10 23.15 23.33 23.09 20.90 22.95 21.83 25.33 26.75 29.27 31.95 33.27 32.85 31.93
20.05 19.80 20.27 20.36 20.80 22.03 21.89 22.21 20.48 21.29 22.75 25.66 26.42 26.13 25.70 24.74 21.59 23.76 25.11 25.61 29.24 30.80 31.74 31.60 32.69 33.06 33.34
19.12 18.87 18.59 19.45 19.44 21.23 21.24 21.01 20.65 21.73 23.03 24.22 23.59 22.83 23.62 25.51 27.52 23.30 26.97 29.75 31.61 32.18 32.25 31.13 31.18 33.33 34.41
18.25 18.79 20.16 18.45 19.29 18.99 19.89 20.45 20.73 22.65 23.78 24.14 23.01 21.62 19.97 20.74 26.04 31.75 27.48 31.31 31.64 31.67 31.91 31.45 30.89 31.62 34.53

GFSFLT2_sfc_wetblb_006.txt.gz
Wetbulb
28.65 30.27 29.65 29.07 30.04 30.89 32.04 31.48 33.27 37.65 37.47 37.37 37.29 37.27 37.80 38.41 39.11 40.04 40.76 41.05 41.83 42.64 43.41 44.31 44.82 45.26 45.73
27.53 27.86 27.72 29.16 29.73 29.66 30.51 33.07 31.70 33.59 35.37 35.86 36.31 36.39 36.75 37.44 38.00 38.48 38.75 39.19 39.67 40.50 41.23 42.31 42.58 43.22 44.20
25.33 27.90 28.41 29.68 28.68 29.35 29.07 28.45 29.11 32.40 34.05 34.33 34.92 35.43 36.05 36.50 36.60 37.00 37.11 37.64 37.96 38.48 39.12 39.57 40.35 41.30 42.54
25.84 27.34 28.04 28.63 27.31 24.31 23.56 25.83 25.71 28.53 30.93 32.23 33.52 33.90 34.36 34.64 34.72 34.58 34.52 34.99 35.88 36.53 37.04 37.39 38.01 39.22 40.70
27.46 26.46 24.38 23.37 22.16 23.75 23.34 24.85 25.94 26.88 25.63 26.11 26.50 26.82 27.59 31.01 31.37 32.44 32.88 33.93 34.92 35.97 36.86 37.52 37.89 38.46 39.36
23.84 22.35 21.78 22.30 23.33 23.83 24.81 22.49 20.14 27.26 25.03 24.83 26.80 25.47 26.22 26.47 30.70 32.34 33.51 34.32 34.79 35.28 35.93 36.73 37.11 37.62 38.29
22.31 21.55 22.09 24.40 26.62 24.32 23.57 23.31 22.46 25.16 25.38 22.73 25.01 23.28 25.73 26.65 30.92 31.89 32.93 33.58 34.26 34.77 35.56 36.14 36.50 37.17 37.78
24.91 26.16 27.86 27.13 26.01 25.57 25.01 25.13 25.08 24.80 25.20 19.75 23.23 22.00 24.53 25.66 30.45 31.62 32.47 33.21 33.72 34.59 35.44 35.98 36.40 37.18 37.94
31.74 30.68 30.37 30.58 29.59 26.49 22.92 20.92 19.25 20.91 23.83 21.39 21.64 21.45 22.91 23.91 26.04 31.13 32.21 32.94 33.21 33.73 34.32 34.59 34.96 35.69 35.02
22.97 23.98 25.74 25.15 29.24 25.45 23.76 19.97 19.55 18.38 22.70 20.99 21.46 22.55 20.06 24.24 24.07 25.48 25.68 30.44 31.88 32.89 33.75 34.40 34.75 32.15 31.53
21.54 22.20 23.20 23.41 23.25 23.69 23.93 22.59 20.28 19.83 24.02 24.52 22.41 21.31 20.92 20.57 23.93 25.34 25.94 25.96 26.25 27.53 31.16 32.43 33.66 33.85 30.54
21.10 21.29 20.43 20.08 21.53 22.56 23.18 23.82 24.93 24.08 25.39 25.04 22.53 22.07 21.04 20.39 20.33 24.93 26.16 26.98 27.02 26.25 26.91 29.50 32.60 34.39 35.73
20.40 19.19 19.87 20.80 21.48 21.79 22.85 23.85 24.27 24.88 26.02 25.21 24.59 24.29 23.82 22.21 21.87 22.45 24.61 25.91 27.13 26.07 26.92 27.46 27.64 28.78 27.99
19.57 20.25 20.94 20.17 20.00 21.36 20.81 21.10 21.23 21.76 25.52 25.62 26.60 26.05 23.59 23.81 23.74 22.78 25.39 23.40 26.64 28.21 29.66 30.80 32.21 33.73 32.66
19.25 18.78 19.20 19.36 19.28 21.24 20.85 21.14 19.07 19.71 21.40 24.69 26.81 26.86 26.37 25.16 23.10 25.77 26.36 27.15 31.15 31.94 32.00 31.75 32.94 33.71 33.07
18.34 18.37 18.05 18.22 19.23 20.14 20.19 19.58 19.22 20.10 21.82 24.00 23.88 23.64 25.00 26.45 29.41 25.21 28.58 28.98 31.64 32.34 32.48 30.98 30.71 32.98 33.63
18.09 17.78 19.40 18.21 18.38 17.92 18.56 19.12 19.10 21.17 23.65 23.29 23.19 23.21 20.94 20.15 26.46 31.36 27.98 30.10 30.89 30.92 31.47 31.07 30.54 31.51 34.80

GFSFLT2_sfc_wetblb_009.txt.gz
Wetbulb
32.63 33.77 32.73 33.01 33.54 34.68 34.97 34.47 35.39 36.95 37.55 37.75 37.83 37.40 37.83 38.23 38.61 38.98 39.39 40.30 40.98 42.01 43.07 43.80 44.48 44.79 45.34
29.99 31.55 31.57 32.94 32.99 33.05 33.66 33.81 33.81 34.70 35.66 36.00 36.52 36.71 36.86 37.15 37.26 37.95 38.18 38.76 39.03 39.60 40.58 41.36 42.11 42.94 43.75
28.69 31.55 32.12 32.84 32.12 32.01 31.12 30.94 31.63 32.99 34.36 34.67 35.30 35.77 36.14 36.53 36.69 36.91 36.83 36.97 37.15 37.47 38.11 39.03 39.82 40.87 42.17
29.47 29.57 29.98 30.76 30.36 28.32 27.41 29.82 29.61 31.02 32.71 33.24 34.28 34.41 34.83 35.09 35.02 34.66 34.62 34.96 35.59 36.20 36.58 36.81 37.36 38.51 39.59
28.45 27.86 27.42 26.98 25.79 27.56 26.83 28.31 29.29 30.08 30.12 30.59 31.10 31.22 31.67 32.86 32.57 32.92 33.09 33.77 34.50 35.42 36.22 36.91 37.10 37.59 38.42
27.24 25.51 25.09 26.03 27.53 27.09 26.91 24.84 23.09 30.14 27.77 27.41 30.64 29.55 30.61 31.04 31.86 32.56 33.34 34.15 34.63 35.05 35.55 36.19 36.59 36.94 37.68
25.84 25.20 25.36 27.16 28.59 26.69 26.40 25.80 24.97 28.37 27.33 24.70 28.89 27.40 30.02 30.00 31.65 32.13 32.96 33.62 34.09 34.49 35.19 35.82 36.17 36.60 37.12
28.18 28.93 30.11 29.99 28.89 28.01 27.45 27.36 27.52 28.20 28.18 22.63 27.42 26.21 28.63 29.37 31.47 32.14 32.61 33.19 33.79 34.46 35.09 35.53 35.65 36.31 37.10
31.99 31.57 30.77 30.77 30.00 27.90 25.63 23.58 21.78 23.61 27.23 24.74 25.21 25.40 26.89 27.89 30.24 31.58 32.38 33.09 33.67 34.12 34.74 35.05 35.28 35.55 35.07
26.42 26.63 27.43 27.35 29.25 27.10 25.77 21.74 21.50 20.69 26.00 23.70 24.63 24.99 22.27 27.57 29.14 29.47 30.07 31.78 32.57 33.61 34.34 34.87 35.26 33.13 33.36
24.16 24.84 25.83 26.30 26.08 26.09 25.70 24.33 21.78 21.61 25.97 25.84 24.89 24.67 23.80 24.22 27.08 29.19 29.83 30.41 31.05 31.69 33.13 33.96 35.11 35.09 32.54
22.75 23.12 23.66 23.65 24.83 25.38 25.46 25.54 26.01 24.45 26.32 26.51 24.38 24.20 23.73 23.18 23.48 28.27 29.34 30.60 31.53 31.34 32.02 32.99 34.27 35.41 36.73
21.86 22.60 23.28 24.32 24.32 24.65 25.67 25.87 26.08 26.69 27.46 27.16 26.45 26.29 26.07 24.84 25.03 26.23 27.20 29.44 31.09 30.96 31.86 32.01 32.10 32.42 30.75
21.39 22.16 23.15 23.39 23.30 24.29 23.07 23.89 22.76 24.06 27.72 28.60 28.88 28.62 26.91 27.36 27.32 26.61 28.28 26.79 31.41 32.38 32.92 32.95 33.97 34.44 32.85
20.71 20.65 20.73 21.95 22.09 23.66 23.23 23.09 21.02 22.00 23.31 26.81 30.01 29.96 29.57 28.35 26.52 28.49 29.54 29.79 31.64 31.82 32.01 32.08 34.18 34.62 34.43
20.62 20.42 20.27 20.44 21.29 22.58 22.70 21.81 21.08 22.12 22.88 26.43 27.32 26.60 28.29 31.10 33.00 29.26 30.40 30.61 31.14 32.03 32.62 31.53 31.63 33.36 34.21
19.82 19.74 20.64 21.35 20.25 20.29 21.03 21.48 21.41 22.67 25.23 26.98 26.14 25.62 22.93 23.73 30.22 32.37 29.56 30.11 31.17 30.96 32.03 31.49 31.25 32.01 34.40

GFSFLT2_sfc_wetblb_012.txt.gz
Wetbulb
34.48 35.66 34.91 35.03 36.01 37.08 36.99 36.15 36.91 37.88 38.07 37.82 37.68 37.83 38.21 38.62 39.14 39.56 39.89 40.32 40.82 41.44 42.10 42.79 43.51 44.15 44.98
32.41 33.22 33.63 35.30 35.22 34.41 34.83 35.27 35.11 35.64 36.51 36.77 37.18 37.39 37.46 37.72 38.04 38.42 38.64 39.04 39.45 40.20 40.53 41.15 41.84 42.34 43.29
31.32 34.07 34.63 34.35 34.04 33.91 32.97 33.14 33.76 34.96 36.06 36.30 36.72 36.91 37.07 37.39 37.64 37.70 37.56 37.70 37.73 38.03 38.41 38.87 39.54 40.36 41.30
31.98 32.62 32.54 33.43 32.93 31.01 29.56 32.10 31.85 33.02 34.69 34.86 35.76 35.88 36.34 36.52 36.35 35.95 35.75 35.95 36.44 36.89 37.14 37.23 37.47 38.34 39.43
31.56 30.91 30.57 30.12 28.58 30.21 29.25 30.27 31.37 31.99 32.53 32.93 33.51 33.57 34.00 35.01 34.56 34.69 34.75 35.07 35.40 35.84 36.52 36.90 37.12 37.59 38.23
30.05 28.09 27.89 28.74 29.51 29.21 28.81 27.26 25.36 32.32 30.45 29.80 32.89 31.66 33.02 33.85 34.26 34.58 34.73 34.98 35.18 35.26 35.73 36.39 36.82 37.13 37.64
28.28 27.72 27.59 28.95 29.61 29.56 28.32 27.38 26.91 30.18 29.90 27.37 31.31 30.30 33.09 33.22 33.88 34.11 34.49 34.79 35.18 35.42 35.55 35.92 36.17 36.63 37.01
29.75 29.74 30.68 31.61 30.77 29.23 28.63 28.34 29.25 30.27 30.44 25.26 30.03 28.92 32.00 32.69 33.60 34.23 34.47 34.76 35.05 35.41 35.92 36.17 36.09 36.31 36.87
32.65 33.35 32.96 32.23 31.27 28.84 27.16 25.83 24.23 25.85 29.01 26.99 27.80 27.73 29.15 30.27 32.78 33.93 34.30 34.75 34.92 35.71 36.24 36.27 36.32 36.64 35.85
30.06 29.66 30.18 29.99 31.17 29.69 28.74 24.93 24.23 22.78 28.04 25.67 25.87 25.95 23.99 29.65 31.74 31.91 32.81 34.09 35.05 35.56 36.32 36.68 36.66 34.46 34.89
27.24 27.85 28.58 29.35 29.56 29.42 28.65 27.02 24.43 23.94 28.05 27.07 25.66 25.69 25.25 25.64 28.70 31.29 32.09 33.27 33.86 34.30 35.67 36.14 36.31 36.48 33.21
25.40 25.57 26.81 27.20 28.19 28.83 28.25 27.81 27.98 26.49 28.20 27.62 25.13 25.39 24.91 24.58 24.45 30.17 32.01 32.88 33.74 33.55 34.16 35.48 36.49 37.01 37.51
23.27 25.13 26.51 27.74 27.84 27.93 28.98 29.02 28.62 29.02 29.32 28.94 27.91 27.53 27.06 25.22 25.60 28.13 29.40 31.57 33.50 32.84 33.73 33.79 33.59 34.24 32.99
23.42 24.53 26.02 26.90 26.64 27.62 26.00 26.50 25.33 26.53 29.71 30.28 30.11 29.31 27.42 28.61 28.05 26.30 30.18 28.88 33.25 33.38 33.56 33.41 34.65 35.26 34.55
23.06 22.84 23.05 24.62 25.01 26.48 26.06 25.70 23.73 24.22 25.76 29.11 30.58 31.21 31.29 29.65 27.18 29.74 31.07 31.64 32.70 32.59 32.07 32.16 34.33 34.96 34.42
22.92 23.41 23.03 23.05 23.62 25.41 25.42 24.69 23.75 23.75 24.65 27.30 28.68 28.44 29.52 31.53 34.01 31.40 31.20 30.73 32.16 32.34 32.83 31.61 31.80 33.87 35.37
23.32 23.38 23.72 24.32 22.89 23.27 24.01 24.55 24.31 25.29 26.08 28.61 28.08 27.59 25.33 23.60 29.87 34.13 29.87 30.42 31.13 31.79 32.13 32.20 30.64 32.55 33.59

GFSFLT2_sfc_wetblb_015.txt.gz
Wetbulb
34.09 35.42 34.54 34.32 35.24 36.28 36.61 35.57 35.77 38.50 38.80 38.69 38.71 38.83 39.27 39.57 39.80 40.20 40.64 41.15 41.67 42.38 43.17 43.34 43.78 43.84 44.15
32.16 32.59 33.27 34.05 34.64 34.22 34.88 35.48 34.02 36.36 37.88 38.22 38.48 38.60 38.75 38.91 39.05 39.26 39.60 39.85 40.39 40.70 41.61 42.18 42.60 42.76 43.37
29.94 32.43 32.70 34.23 33.67 33.42 32.76 33.13 33.90 35.77 36.85 37.23 37.69 37.84 38.10 38.52 38.70 38.85 38.80 38.78 38.71 38.80 39.14 39.70 40.34 40.88 41.76
29.47 29.91 31.56 33.24 31.94 29.90 28.79 30.77 30.33 32.92 34.66 35.28 36.48 36.91 37.46 37.73 37.42 37.04 37.03 37.27 37.77 38.02 38.09 37.90 38.17 38.88 39.99
28.73 30.02 28.82 28.27 27.45 28.65 27.56 28.53 29.15 31.12 29.84 30.46 31.59 31.21 31.88 34.90 34.94 35.57 36.05 36.76 37.11 37.41 37.74 38.04 38.00 38.46 38.76
29.97 27.21 27.35 27.84 27.93 27.36 26.45 26.23 24.17 30.29 28.59 27.73 30.17 29.39 30.78 31.51 35.18 35.98 36.30 36.58 36.80 37.09 37.50 37.79 37.72 37.52 37.65
28.11 27.54 26.52 27.42 27.53 26.67 27.59 26.25 24.81 27.65 27.51 25.33 29.24 27.71 30.33 31.56 34.71 35.60 35.83 36.22 36.83 37.26 37.34 37.62 37.87 37.97 38.06
29.78 28.96 29.22 30.21 31.01 30.49 27.74 26.81 27.27 28.17 29.33 23.47 27.36 25.90 29.17 30.24 33.77 34.68 35.64 36.24 36.56 36.99 37.52 37.89 38.25 38.30 38.48
32.80 33.50 34.23 34.03 32.46 28.97 25.49 24.75 23.48 24.79 27.71 24.90 25.51 25.83 26.56 26.93 29.52 34.38 35.68 36.05 35.89 36.82 37.31 37.77 38.01 38.78 38.16
29.15 29.71 30.41 29.87 32.26 29.67 28.10 24.82 23.62 22.11 26.14 24.48 24.46 24.64 22.06 26.55 28.04 28.72 29.57 33.58 35.50 36.00 37.17 37.70 37.92 36.01 35.59
26.86 26.93 27.53 27.90 28.63 28.54 28.41 27.18 24.53 22.65 26.35 26.08 24.40 23.74 23.30 22.60 25.48 27.29 28.09 29.28 30.82 32.05 35.48 36.82 37.39 37.28 34.53
24.86 24.35 24.52 25.09 26.31 27.30 27.40 27.29 27.65 26.35 27.83 27.52 24.38 24.05 23.23 22.06 21.67 25.92 27.48 28.84 30.08 30.67 31.70 35.07 37.00 37.60 38.19
23.68 23.90 24.97 25.52 25.59 26.00 27.66 28.32 28.01 27.96 28.40 27.69 26.67 26.36 25.81 23.74 23.05 24.46 26.33 28.44 29.94 29.72 32.33 33.52 33.55 33.82 32.42
23.64 24.35 25.00 24.09 23.65 25.05 24.60 24.94 24.61 24.48 27.25 28.13 28.79 28.34 26.39 26.29 26.30 25.93 27.78 25.57 29.15 31.06 32.33 32.63 33.40 33.75 33.68
23.92 23.07 22.67 23.25 23.40 24.20 24.29 24.53 23.12 22.77 23.89 26.34 28.01 28.11 28.69 28.15 26.46 26.77 27.53 28.59 30.75 30.81 30.75 30.28 31.80 33.30 34.01
22.92 22.72 22.61 22.38 22.48 23.68 24.15 23.14 22.46 23.11 23.90 25.65 26.39 26.86 26.58 28.11 32.42 28.14 28.40 27.81 29.72 30.00 30.55 29.74 29.73 32.15 33.28
22.87 22.29 22.57 22.85 22.60 21.63 22.48 22.72 22.36 23.20 23.83 25.64 26.35 25.04 22.61 21.25 27.02 33.21 27.83 28.18 28.25 29.22 30.48 30.37 29.93 30.77 32.88

GFSFLT2_sfc_wetblb_018.txt.gz
Wetbulb
30.13 30.99 29.63 30.12 32.15 32.14 34.02 33.19 34.24 38.69 39.03 39.28 39.25 39.65 40.00 40.31 40.47 40.97 41.29 41.79 42.20 42.98 43.71 44.13 44.49 44.53 44.68
29.01 29.41 28.43 29.79 31.17 30.61 33.93 35.01 33.06 36.27 38.10 38.28 38.55 38.65 38.99 39.30 39.60 39.82 40.11 40.58 40.86 41.31 41.94 42.53 42.66 43.04 43.59
26.79 29.15 29.30 30.21 30.38 32.29 30.74 30.49 32.04 35.15 36.38 36.86 37.39 38.08 38.22 38.65 39.07 39.25 39.00 39.08 39.22 39.40 39.65 40.16 40.88 41.57 42.06
26.62 27.24 28.33 30.29 29.81 26.94 26.54 27.39 27.82 31.10 32.87 34.69 36.36 36.18 36.99 37.29 37.07 36.77 36.81 37.40 38.05 38.62 38.91 39.02 39.04 39.79 40.53
27.47 27.33 28.62 26.25 25.54 26.31 24.96 26.03 26.74 28.19 28.50 28.49 28.90 29.31 29.82 33.32 33.83 35.07 35.85 37.23 37.82 38.34 38.91 39.32 39.27 39.67 40.18
28.62 25.32 25.37 25.61 23.60 24.68 24.53 23.41 22.79 29.14 24.52 25.90 27.94 26.95 28.46 29.63 34.00 35.55 36.15 36.74 37.32 37.97 38.31 38.93 39.31 39.64 40.03
26.04 25.75 24.74 25.21 24.66 24.52 25.89 27.13 25.43 26.66 25.97 23.76 27.31 26.19 28.30 29.78 33.42 34.78 35.78 35.95 36.78 37.52 37.99 38.58 38.91 39.36 39.61
27.92 27.11 27.01 29.14 30.02 30.22 28.16 26.04 26.23 26.87 26.69 22.91 26.50 25.06 27.02 27.90 33.12 33.81 34.60 35.68 36.75 37.49 37.84 37.84 38.25 38.70 39.12
32.56 33.29 33.78 33.45 32.36 28.51 24.82 22.98 22.55 24.16 26.66 24.72 24.25 24.11 25.26 25.54 27.31 32.59 33.78 34.90 34.70 35.71 36.34 37.26 37.64 38.36 37.88
27.30 27.38 28.54 26.85 31.30 27.06 25.56 22.33 21.91 21.07 24.67 23.79 23.40 24.00 20.78 24.84 25.15 26.80 26.88 31.35 33.09 34.19 35.23 36.11 36.65 34.23 34.55
24.34 24.57 25.03 25.09 25.38 25.82 25.86 24.62 23.31 22.17 25.99 26.03 23.96 23.57 23.19 21.54 23.97 25.88 26.35 26.83 27.30 28.75 32.66 34.34 35.68 35.99 33.69
23.18 22.90 23.05 23.16 24.13 24.82 25.29 24.95 25.72 25.32 26.74 27.42 24.84 24.08 22.87 21.70 20.97 25.00 26.15 26.98 27.30 27.49 28.93 32.49 34.86 36.12 37.20
22.87 22.57 22.79 23.59 23.99 23.61 24.14 24.68 25.15 26.17 27.33 26.49 25.66 25.37 24.85 22.93 22.52 23.84 24.99 26.44 28.37 27.95 28.67 29.75 30.23 32.10 31.58
22.23 23.34 24.32 23.72 22.38 23.10 22.81 22.87 22.28 22.60 25.95 26.39 25.73 26.18 24.84 24.94 25.01 24.24 25.72 24.64 28.61 29.05 30.06 31.01 31.79 32.41 32.09
22.51 22.57 22.54 22.30 22.47 23.24 22.63 22.77 21.58 20.86 21.86 24.45 25.89 25.84 25.95 25.18 24.02 25.43 25.87 26.81 29.04 29.23 28.48 28.53 29.94 30.89 31.27
21.92 21.60 21.38 20.88 21.03 22.52 23.22 21.15 20.34 21.08 21.56 22.79 23.16 23.28 24.56 25.78 30.32 26.38 27.42 26.88 28.16 28.94 28.88 27.20 27.82 30.67 31.89
21.15 20.73 21.02 21.34 22.08 20.36 20.80 21.23 20.70 21.04 21.38 22.59 23.97 23.85 21.22 20.25 26.35 32.99 27.58 27.70 27.69 27.24 28.30 28.73 28.17 30.02 31.42

GFSFLT2_sfc_wetblb_021.txt.gz
Wetbulb
27.07 28.24 27.25 28.18 29.91 30.85 32.45 32.00 33.18 38.27 38.62 38.77 39.14 39.29 39.65 39.92 40.33 40.91 41.23 41.81 42.45 43.01 43.93 44.25 44.58 44.84 45.15
26.66 27.56 27.26 27.72 29.27 29.12 31.37 33.98 33.00 35.28 37.13 37.63 37.87 38.07 38.33 38.79 39.57 39.70 40.05 40.42 40.94 41.55 41.99 42.51 42.76 43.34 44.12
26.13 28.37 27.94 29.10 28.78 29.72 30.61 29.57 31.14 34.33 35.57 35.99 36.79 37.23 37.94 38.30 38.38 38.52 38.52 38.54 38.78 39.05 39.45 40.25 41.03 41.77 42.52
25.83 25.92 27.27 28.89 29.20 26.47 25.95 27.12 26.78 29.95 31.95 33.61 35.47 36.23 36.25 36.50 36.57 36.10 36.03 36.68 37.55 38.29 38.77 39.26 39.75 40.65 41.44
24.90 25.95 27.08 25.49 24.51 26.05 24.47 25.58 26.42 27.61 27.35 27.65 28.15 28.47 28.90 32.34 32.85 34.01 34.99 36.64 37.51 38.06 38.55 39.12 39.48 40.12 40.98
26.19 25.48 24.51 24.59 22.82 24.68 24.12 23.36 22.83 28.88 24.61 26.26 27.80 26.62 27.53 28.32 33.08 34.94 35.59 35.95 36.71 37.40 37.70 38.16 38.84 39.47 40.18
25.59 24.68 24.06 25.18 24.56 23.66 25.77 26.58 25.74 27.05 26.14 24.09 26.82 25.39 27.69 29.25 33.17 34.01 34.88 35.65 36.03 36.56 37.26 38.17 38.88 39.31 39.65
26.71 26.20 26.35 28.56 29.81 28.79 26.68 25.55 25.71 26.31 26.31 22.16 25.93 24.82 26.91 27.17 32.17 33.31 34.06 34.70 35.42 36.06 36.75 36.77 37.05 37.92 38.58
32.75 33.30 33.54 32.93 31.50 27.53 22.96 21.49 20.67 22.53 25.25 22.82 23.53 23.53 24.90 25.11 26.83 32.03 33.16 33.81 33.99 34.41 35.02 35.64 36.18 36.77 36.21
26.08 26.83 27.67 26.16 30.40 25.95 23.73 20.98 20.77 19.90 23.54 22.68 23.02 23.52 21.09 24.43 24.79 26.07 26.04 30.43 32.28 33.39 34.10 34.54 35.03 32.55 32.23
23.46 23.85 24.46 24.66 25.08 25.31 25.00 23.18 21.66 20.78 24.65 25.06 23.35 22.82 22.97 21.75 24.21 25.45 25.84 26.30 26.43 27.80 31.78 33.05 33.87 33.80 31.34
22.46 22.49 22.86 22.66 23.21 23.91 24.62 24.06 24.16 23.09 24.34 24.49 22.74 22.82 21.95 20.68 20.07 24.08 25.06 26.09 26.47 26.25 27.05 30.58 33.57 34.93 35.59
21.59 21.37 21.83 22.83 23.37 23.29 23.56 23.82 23.47 24.77 26.04 24.80 23.74 23.47 23.26 21.43 20.86 22.05 23.73 25.21 26.74 26.29 26.21 28.35 28.89 29.33 29.04
21.22 22.17 22.92 22.17 21.75 22.62 21.77 22.35 21.48 21.56 25.15 25.27 24.03 24.03 22.88 23.42 23.30 22.69 24.52 22.90 25.65 27.09 27.48 29.20 30.14 31.23 31.13
21.07 21.05 21.17 21.37 21.29 21.99 21.60 21.55 20.69 20.37 20.74 23.29 24.92 24.65 24.19 23.90 22.09 22.93 23.48 24.11 25.72 26.39 27.56 27.55 28.84 29.97 30.51
20.32 19.98 19.75 19.65 19.89 21.32 22.59 20.89 19.43 19.99 20.91 21.94 22.24 22.15 22.53 24.72 28.38 23.97 24.99 25.72 26.88 27.24 28.31 26.84 27.01 29.67 31.07
19.23 18.81 18.94 19.42 21.24 19.60 20.24 20.42 19.90 20.34 21.03 22.42 23.47 23.56 20.63 18.96 25.91 32.64 27.98 28.03 28.09 27.89 27.77 27.85 27.50 29.52 31.12

GFSFLT2_sfc_wetblb_024.txt.gz
Wetbulb
25.47 27.02 26.43 26.91 29.09 29.48 30.89 30.31 31.18 36.86 38.11 38.41 38.54 38.95 39.12 39.54 40.00 40.48 41.04 41.70 42.49 43.15 43.68 44.49 45.01 45.30 45.50
24.97 25.50 25.97 27.21 27.23 27.22 30.18 32.29 31.40 35.13 36.86 37.49 37.68 37.76 38.19 38.56 39.14 39.68 39.70 39.98 40.41 40.94 41.56 42.05 42.72 43.32 44.19
25.29 25.97 26.03 26.67 27.41 27.57 28.30 29.34 30.52 33.91 35.30 35.56 36.43 37.01 37.49 38.15 38.39 38.28 38.20 38.37 38.61 38.80 39.31 39.95 40.74 41.63 42.57
24.82 24.10 24.38 27.21 26.97 25.94 24.81 26.92 26.53 29.34 31.72 33.28 35.31 35.93 36.42 36.52 36.40 36.21 36.01 36.39 37.16 37.88 38.45 38.90 39.41 40.70 41.75
24.97 23.07 25.92 25.47 24.22 25.11 23.94 25.05 25.93 27.41 27.12 26.90 27.54 27.44 29.11 32.34 32.74 33.96 34.44 35.81 37.01 37.84 38.27 38.69 38.99 39.75 40.78
19.72 24.93 24.78 24.33 24.81 24.00 23.66 22.73 22.19 28.04 24.67 25.98 27.65 26.52 27.55 27.75 32.42 34.31 35.49 36.19 36.48 36.81 37.40 38.13 38.42 38.73 39.49
25.68 24.83 24.13 24.91 24.71 22.89 24.39 25.80 24.32 26.27 25.55 22.99 26.03 24.71 27.12 28.64 33.19 34.19 34.99 35.50 36.02 36.50 36.72 37.22 37.89 38.75 39.62
26.66 26.45 26.17 27.36 29.12 28.54 25.89 24.85 25.13 25.48 25.36 20.33 24.54 23.53 25.82 26.67 32.18 33.35 34.11 34.78 35.30 35.93 36.44 36.67 36.63 36.77 37.25
32.95 33.38 33.64 33.51 31.73 27.03 22.63 21.57 20.05 21.70 24.57 22.10 22.11 22.84 24.32 24.64 26.54 31.89 33.24 33.98 34.60 34.86 35.30 35.46 35.67 36.15 35.17
24.67 25.21 27.02 25.60 30.30 25.89 22.46 19.83 19.85 19.23 22.53 20.32 22.19 22.41 20.27 23.43 24.65 24.11 25.75 30.83 32.47 33.31 34.02 34.54 34.86 32.04 31.44
22.76 23.04 23.79 24.06 24.58 24.85 24.77 21.80 21.08 20.66 24.61 25.00 22.54 21.51 21.51 20.53 23.60 24.85 25.24 25.71 25.80 27.15 31.19 32.41 33.23 33.18 30.17
21.63 21.57 21.87 21.62 22.29 23.16 24.10 23.76 24.04 23.28 24.30 24.39 21.27 20.35 20.14 19.39 19.04 23.14 24.31 25.16 25.42 24.98 25.80 29.52 32.46 33.89 34.84
20.62 20.69 20.96 21.70 22.20 22.18 22.83 23.40 23.05 24.18 25.98 25.53 24.14 23.04 22.16 20.10 19.54 20.92 22.39 24.06 25.35 24.90 25.52 25.48 25.31 26.60 27.16
20.43 21.31 22.17 21.30 20.84 21.86 20.95 21.48 21.23 21.10 24.54 25.71 25.26 24.13 21.78 21.86 21.93 21.06 22.48 21.46 24.32 24.86 25.13 25.72 26.81 27.97 28.95
20.08 20.63 20.69 20.62 20.25 20.97 20.54 20.49 19.62 19.68 19.89 22.56 24.64 24.72 24.27 23.47 21.23 21.96 22.36 22.69 24.15 24.35 25.09 25.24 26.93 28.76 29.86
19.36 19.01 18.68 18.39 18.55 20.34 21.46 19.81 18.58 19.18 19.87 21.26 22.00 22.16 23.14 25.17 27.98 22.55 23.13 23.61 25.25 26.48 27.82 26.48 26.75 29.45 30.23
18.18 17.83 18.14 18.52 20.16 18.20 18.84 19.47 18.87 19.35 20.05 21.66 22.57 22.99 20.22 18.45 25.49 32.16 27.41 28.25 28.02 27.74 28.26 27.75 26.96 28.25 29.42

GFSFLT2_sfc_wetblb_027.txt.gz
Wetbulb
24.66 25.90 25.57 26.71 28.54 28.78 29.83 28.60 29.62 35.98 37.27 38.11 38.56 39.04 39.52 39.72 40.06 40.67 40.96 41.59 42.36 43.31 43.96 44.41 44.85 44.97 45.41
23.51 24.90 25.15 26.42 26.73 26.17 29.23 31.33 30.25 33.98 36.51 37.28 37.83 37.90 38.28 38.77 39.08 39.46 39.88 40.42 40.63 41.01 41.51 42.11 42.76 43.18 43.76
24.20 25.17 25.41 25.58 25.67 26.51 26.53 27.80 29.57 33.16 34.93 35.40 36.14 36.85 37.51 38.17 38.45 38.53 38.41 38.52 38.80 38.95 39.34 39.95 40.73 41.46 42.34
24.43 23.17 23.93 25.82 25.42 24.84 24.71 26.23 26.08 28.77 31.33 33.10 35.01 35.73 36.11 36.62 36.58 36.37 36.26 36.70 37.54 38.14 38.30 38.57 39.10 39.94 41.03
23.50 21.60 23.36 25.08 24.40 25.26 23.70 24.79 25.26 26.66 26.60 26.44 26.43 27.53 28.38 32.21 32.76 33.98 34.46 35.65 36.74 37.69 38.41 38.82 38.96 39.26 40.23
17.44 22.96 24.23 24.03 24.37 24.04 23.71 22.84 22.24 26.84 24.25 25.36 27.04 26.00 26.93 27.35 32.22 34.18 35.46 36.34 36.86 37.29 37.33 37.92 38.36 38.53 39.33
25.05 24.27 23.94 25.19 25.18 24.06 24.66 24.26 24.62 25.91 25.20 22.70 25.41 24.03 26.23 27.65 32.67 33.98 35.03 35.57 36.13 36.58 36.82 37.19 37.60 37.92 38.51
25.96 26.43 26.54 27.47 27.75 28.10 27.07 24.55 24.96 25.37 24.36 19.70 24.23 23.16 25.42 25.99 31.55 33.22 34.17 34.92 35.51 36.09 36.62 36.83 36.93 37.10 37.43
32.90 33.28 33.61 33.40 31.80 26.85 22.13 21.01 19.65 21.59 24.24 21.82 21.73 22.13 24.09 24.55 26.22 31.72 33.24 34.16 34.80 35.17 35.48 35.68 35.77 36.06 34.85
24.36 24.62 26.60 25.03 29.97 25.41 20.56 18.29 20.00 19.33 22.10 20.20 21.90 22.62 19.56 22.89 23.67 24.22 25.81 30.44 32.17 33.22 33.96 34.50 34.80 31.90 31.07
21.92 22.20 23.12 23.30 23.69 24.07 24.14 19.03 20.54 20.30 24.24 24.79 21.13 21.72 21.48 19.80 22.49 24.05 24.39 24.85 25.03 26.52 30.63 31.93 32.73 32.54 29.51
20.93 20.87 21.18 20.98 21.59 22.29 23.18 22.81 23.33 22.66 23.78 24.07 21.26 19.14 19.47 18.61 18.24 22.55 23.68 24.42 24.68 24.44 25.05 28.47 31.40 32.95 34.06
19.89 20.13 20.41 20.65 21.04 21.07 21.76 22.52 22.26 22.94 24.80 24.30 23.55 23.07 22.40 20.10 19.43 20.52 21.87 23.37 24.57 23.93 24.29 24.25 24.32 25.31 24.11
19.68 20.61 21.42 20.43 20.15 21.01 19.68 20.34 20.12 20.28 23.12 24.26 23.66 23.16 21.63 22.08 21.82 20.47 21.72 20.69 23.45 24.33 24.57 24.86 25.55 26.19 26.50
18.80 19.36 19.77 19.70 19.48 20.07 19.52 19.41 18.71 18.80 19.10 21.88 23.68 24.11 23.91 23.03 20.89 21.93 22.45 22.56 23.90 23.85 23.72 23.42 25.16 26.16 26.43
17.70 17.61 17.48 17.47 17.82 19.60 20.49 18.33 17.53 18.22 18.82 20.45 21.21 21.36 22.69 24.91 28.08 23.02 23.61 23.50 24.69 25.57 26.44 24.71 25.30 28.75 29.68
16.38 15.88 16.66 17.53 19.64 17.19 17.67 18.09 18.11 18.76 19.38 20.52 21.92 22.31 19.16 17.72 24.95 31.18 26.58 27.85 28.16 27.51 28.11 27.79 26.75 28.27 29.73

GFSFLT2_sfc_wetblb_030.txt.gz
Wetbulb
24.82 25.26 25.06 26.12 28.09 28.05 29.35 27.81 28.43 35.59 37.03 37.70 38.22 38.88 39.56 40.01 40.27 40.65 41.25 41.75 42.42 43.40 44.22 44.95 45.23 45.20 45.68
23.23 24.10 24.74 26.12 26.18 25.79 28.89 30.82 29.16 33.48 36.20 37.19 37.72 37.87 38.17 38.67 39.14 39.59 39.95 40.61 41.00 41.50 42.04 42.54 43.17 43.34 43.91
23.26 24.69 24.88 25.24 25.03 25.39 25.67 26.39 29.07 32.82 34.83 35.17 35.80 36.59 37.43 38.11 38.66 38.65 38.66 38.93 39.09 39.32 39.94 40.46 41.05 41.64 42.60
23.81 23.07 23.81 25.42 24.82 24.76 24.14 25.26 25.59 28.46 31.10 32.51 34.67 35.37 36.12 36.80 36.82 36.57 36.63 37.02 37.75 38.47 38.89 39.05 39.29 39.99 40.95
22.91 22.07 22.18 24.13 24.31 25.24 23.72 24.51 24.94 26.31 26.01 25.92 26.28 26.81 28.23 32.03 32.69 33.87 34.25 35.60 36.95 37.91 38.44 38.93 39.11 39.55 40.24
17.48 22.48 23.58 23.99 22.57 23.49 23.37 22.54 22.72 25.98 23.38 25.47 26.88 26.11 27.04 27.19 31.88 33.97 35.50 36.45 36.91 37.41 37.91 38.09 38.36 38.65 39.23
24.73 23.79 23.51 23.99 23.26 22.06 24.08 24.67 23.97 26.11 25.36 22.86 25.41 24.17 26.32 27.32 32.40 33.83 35.06 35.73 36.26 36.80 37.18 37.59 37.73 38.12 38.53
26.02 26.03 25.60 26.25 26.84 27.76 26.29 24.55 24.62 25.35 24.55 19.84 24.40 23.41 25.41 25.75 31.37 33.02 34.18 35.13 35.74 36.29 36.79 37.07 37.12 37.20 37.65
32.43 32.76 32.89 32.83 31.37 26.06 21.29 19.95 19.50 21.21 23.79 21.68 21.77 21.77 23.98 24.60 26.20 31.74 33.22 34.01 34.65 35.07 35.37 35.56 35.86 36.28 35.08
23.54 24.06 25.61 24.15 29.62 24.78 18.57 16.50 19.20 18.15 21.57 19.88 20.99 21.75 18.86 22.87 23.97 23.72 25.29 29.91 31.69 32.77 33.72 34.22 34.43 31.81 31.12
20.98 21.45 22.41 22.42 22.93 23.34 23.58 16.49 19.71 19.44 23.56 24.48 18.10 21.33 21.25 19.98 22.46 23.90 24.19 24.52 24.56 26.03 30.04 31.39 32.20 32.11 29.15
20.19 20.11 20.51 20.23 20.90 21.67 22.66 22.08 22.37 21.87 23.06 23.10 20.37 18.05 19.04 18.12 18.03 22.58 23.55 24.41 24.51 24.22 24.75 27.90 30.85 32.41 33.50
19.22 19.31 18.63 19.32 19.89 20.22 20.79 21.61 21.15 21.96 23.94 22.83 22.37 21.60 21.08 19.36 18.85 20.16 21.58 23.43 24.52 23.77 24.07 23.91 24.11 24.94 23.50
18.83 19.79 20.48 16.99 19.39 20.35 18.83 19.56 18.89 19.54 21.81 21.87 20.80 21.27 19.96 20.81 21.24 20.13 21.85 20.67 23.28 24.08 24.21 24.63 25.43 25.99 25.68
17.74 17.90 18.66 18.89 18.78 19.41 18.76 18.55 17.68 18.23 18.69 21.48 21.81 22.09 22.71 22.13 20.27 21.30 21.66 22.20 23.78 23.85 24.01 23.60 25.45 26.64 26.28
16.27 15.73 16.07 16.35 16.74 18.69 20.27 18.37 16.86 17.59 18.13 19.83 20.38 20.23 21.54 24.44 27.87 22.63 23.14 23.29 24.90 25.82 26.87 25.21 25.52 28.69 28.84
13.85 14.24 15.81 15.54 18.82 17.44 18.02 18.42 18.09 18.73 19.17 19.92 20.33 21.69 19.15 17.23 24.72 31.15 26.21 27.07 27.12 26.65 27.05 26.79 26.35 28.18 29.12

GFSFLT2_sfc_wetblb_033.txt.gz
Wetbulb
32.93 33.46 32.97 34.09 34.88 35.84 35.54 35.34 35.34 36.33 37.23 37.66 38.32 39.07 39.71 40.22 40.61 41.04 41.58 42.21 42.75 43.27 44.19 44.94 45.66 45.86 46.01
31.29 31.94 31.57 33.37 33.66 33.10 33.72 34.42 34.39 34.82 36.10 37.19 37.98 38.12 38.34 38.83 39.31 39.87 40.28 40.72 41.20 41.71 42.14 42.89 43.29 44.00 44.47
30.10 30.82 31.68 32.50 32.60 32.96 32.58 33.04 32.64 33.76 34.97 35.64 36.17 36.77 37.60 38.36 38.78 39.09 39.21 39.38 39.61 39.81 40.31 40.81 41.43 42.15 42.90
29.42 30.49 30.90 32.33 31.58 30.15 29.55 31.64 30.89 32.23 33.32 33.96 35.22 35.73 36.55 36.99 37.06 36.83 36.75 37.05 37.84 38.61 39.03 39.19 39.55 40.41 41.30
29.72 29.58 29.60 29.96 29.39 30.32 28.33 29.25 30.21 31.56 31.12 31.71 31.96 32.27 32.89 34.14 34.04 34.45 34.81 35.84 36.96 37.93 38.83 39.43 39.55 40.09 40.89
29.81 28.41 29.23 29.39 29.65 28.40 27.94 26.86 24.70 32.54 29.73 29.42 31.73 30.64 31.71 32.49 33.66 34.42 35.52 36.47 37.08 37.52 38.16 38.67 38.81 39.06 39.52
29.49 29.07 28.38 29.62 29.71 27.79 28.33 27.78 25.98 29.88 29.83 26.83 30.33 28.93 31.51 31.56 33.34 34.07 35.09 35.75 36.43 36.99 37.47 38.02 38.34 38.53 38.91
31.16 30.93 31.13 31.29 30.56 30.10 29.40 28.85 28.86 29.41 29.68 23.81 29.70 28.70 30.83 31.28 32.90 33.54 34.25 35.09 35.72 36.36 36.91 37.17 37.33 37.60 37.95
32.07 32.54 32.84 32.73 32.11 29.60 27.13 25.45 23.36 25.51 28.72 25.72 27.06 27.37 28.48 28.95 30.92 32.62 33.45 34.24 34.80 35.19 35.56 35.77 35.91 36.34 35.75
28.27 28.15 28.42 27.70 29.47 28.39 26.87 23.41 22.69 22.40 27.63 24.69 26.05 25.77 23.46 29.12 30.09 30.66 30.15 31.61 32.43 33.06 33.75 34.31 34.48 32.75 32.15
25.56 25.77 26.34 26.59 27.08 27.17 26.74 25.31 22.51 22.54 26.95 26.03 25.29 24.80 23.50 23.12 26.52 28.71 29.19 29.37 29.60 30.20 31.33 31.94 32.40 32.35 30.72
23.62 24.08 24.67 24.86 25.67 25.93 25.88 25.83 26.13 24.60 26.50 26.03 22.92 22.84 21.98 21.27 21.33 26.74 28.72 29.74 29.73 29.01 30.06 30.79 31.79 32.69 33.53
22.53 23.57 24.27 24.46 24.26 24.59 25.44 25.71 25.11 25.47 26.40 25.76 24.16 23.95 23.06 21.70 21.76 23.52 24.57 27.13 28.44 28.15 29.38 28.91 29.17 29.71 28.92
22.11 22.83 23.40 23.45 23.54 24.68 23.31 24.16 23.11 24.63 27.76 26.83 25.68 24.68 22.72 23.69 23.44 22.56 25.38 23.29 27.54 28.62 29.35 29.08 29.93 30.38 29.40
20.69 20.56 20.97 22.00 22.53 23.71 22.84 22.99 21.80 22.69 23.79 26.21 28.09 26.97 26.13 24.49 21.85 23.75 23.75 25.52 27.89 28.41 28.04 27.03 29.04 30.39 30.79
19.94 19.55 19.22 19.85 20.55 22.40 24.05 23.17 22.24 22.86 23.21 24.99 25.52 24.68 25.29 27.08 28.45 24.59 27.14 27.76 29.60 30.39 29.79 27.23 27.90 31.38 32.57
18.35 18.14 18.63 19.08 20.59 21.11 21.87 22.36 23.46 24.75 25.30 25.68 24.30 24.05 21.62 20.26 27.33 31.62 27.81 29.32 29.71 29.12 29.76 29.08 27.88 29.70 31.96

GFSFLT2_sfc_wetblb_036.txt.gz
Wetbulb
32.91 33.27 33.28 33.97 36.55 37.91 38.49 37.86 38.03 38.53 38.73 38.64 38.61 39.05 39.91 40.56 40.95 41.41 41.84 42.46 42.99 43.90 44.62 45.02 45.50 45.62 46.41
31.54 31.68 31.83 33.81 34.64 34.84 35.69 36.50 36.75 37.43 37.83 37.78 38.35 38.85 39.10 39.43 39.65 40.11 40.53 41.04 41.59 42.26 42.94 43.18 43.57 44.20 44.91
31.54 32.65 32.37 33.19 32.52 34.31 35.45 35.94 35.99 36.25 36.93 36.96 37.42 37.87 38.34 38.68 39.12 39.52 39.62 39.73 40.04 40.36 40.77 41.28 41.95 42.69 43.52
31.18 31.81 32.47 33.18 33.20 31.89 32.15 34.72 33.62 34.61 35.70 36.57 36.59 36.80 37.40 37.69 37.86 37.69 37.72 38.05 38.48 38.98 39.36 39.51 39.77 40.57 41.51
31.11 31.38 31.01 31.22 31.52 33.33 30.99 31.79 32.66 34.06 33.64 34.64 34.84 35.12 35.68 36.79 36.59 36.54 36.68 37.01 37.48 38.25 39.01 39.52 39.71 40.24 40.85
31.06 30.11 31.16 32.21 32.65 31.43 30.26 28.83 26.84 34.23 32.44 31.88 34.54 33.56 34.81 35.57 36.64 36.67 36.73 37.18 37.54 37.92 38.30 38.90 39.14 39.45 39.75
31.24 31.48 31.32 32.10 31.89 29.92 29.48 28.78 27.97 31.54 32.21 29.36 33.06 31.80 34.61 35.39 36.50 36.36 36.49 36.59 36.82 37.19 37.61 38.09 38.52 38.87 39.13
33.07 33.00 33.10 33.20 32.54 32.12 31.02 30.31 31.34 32.41 33.25 27.78 31.86 31.05 33.81 34.74 36.00 35.99 35.93 36.15 36.41 36.74 37.14 37.35 37.53 37.87 38.13
32.75 32.74 33.11 33.41 33.15 31.37 28.61 28.19 26.71 28.55 31.97 29.09 30.15 30.37 31.91 32.93 34.08 35.14 34.92 35.10 35.36 35.90 36.18 36.21 36.38 36.73 36.12
31.20 31.35 31.38 30.83 30.71 30.47 29.95 26.44 25.61 24.58 31.57 27.45 28.34 28.44 25.88 31.56 32.67 33.32 33.29 34.54 34.57 34.80 34.92 35.04 35.16 33.53 33.07
29.05 29.01 29.56 30.07 30.54 30.96 30.43 28.61 25.21 24.85 29.93 29.30 27.61 27.43 26.62 26.27 29.60 31.71 32.04 32.73 33.16 33.50 34.07 34.24 34.09 33.71 31.47
26.57 27.24 28.26 29.17 30.14 30.17 29.79 29.63 29.56 28.06 29.87 29.56 25.47 25.76 24.69 23.03 23.92 29.18 31.31 32.21 32.28 31.48 33.04 33.20 33.74 34.22 34.55
26.03 27.49 28.90 29.21 28.72 28.31 29.85 29.57 29.04 28.84 28.97 28.68 26.36 25.29 24.08 23.10 23.55 25.37 26.21 29.09 30.63 30.33 31.10 31.60 31.97 32.02 29.89
26.43 27.04 27.59 27.32 27.20 28.76 27.54 28.09 27.38 28.34 33.00 31.36 29.88 28.01 24.46 24.95 24.99 24.30 26.54 24.36 29.20 30.31 31.11 31.22 31.76 31.12 30.81
25.23 24.89 24.87 25.57 26.19 27.99 27.08 26.33 24.88 26.17 28.89 30.61 32.31 31.11 29.48 27.49 24.42 25.77 25.45 26.28 29.24 29.46 29.23 28.76 31.03 31.99 32.13
24.52 24.30 23.66 23.79 24.29 25.88 26.65 26.08 25.40 26.54 26.54 28.06 28.47 27.87 28.77 29.88 30.93 27.31 28.58 28.71 30.74 31.62 31.28 29.12 29.68 32.78 33.74
23.56 23.15 22.84 22.66 23.20 23.86 25.22 25.61 25.95 26.98 26.93 28.43 28.51 27.80 24.79 23.19 29.82 33.37 28.97 30.01 30.30 29.90 30.93 30.50 29.50 31.58 33.50

GFSFLT2_sfc_wetblb_039.txt.gz
Wetbulb
33.50 33.82 34.06 34.77 35.71 36.40 36.88 36.29 36.69 39.53 40.20 40.38 40.42 40.36 40.12 40.50 41.17 41.82 42.35 42.94 43.44 44.17 44.78 45.43 45.96 46.01 46.22
32.73 32.53 32.67 32.87 33.36 33.77 35.12 36.26 35.72 37.66 39.15 39.60 39.52 39.60 39.65 40.12 40.34 40.70 41.00 41.46 41.92 42.46 43.03 43.63 44.25 44.83 45.30
32.02 32.77 32.92 34.06 33.61 34.36 34.28 34.95 36.24 37.87 38.94 38.72 38.69 38.90 39.36 39.61 39.94 40.20 40.46 40.65 40.82 40.89 41.15 41.58 42.25 43.01 43.68
31.98 32.49 32.89 34.24 33.70 31.80 31.50 34.00 33.20 35.24 36.29 36.86 38.19 38.63 38.75 38.99 39.10 38.90 38.86 39.10 39.50 39.84 40.00 40.10 40.32 40.99 41.85
31.75 31.72 31.66 31.57 30.78 32.42 30.90 31.20 31.64 32.77 32.01 32.69 33.12 33.25 34.25 36.87 37.08 37.79 38.14 38.35 38.56 38.94 39.51 39.87 40.07 40.52 41.23
31.89 29.68 30.44 31.20 31.82 30.64 29.97 28.37 25.87 32.29 29.89 29.86 32.70 31.68 32.74 33.53 37.23 37.94 38.20 38.32 38.45 38.56 38.92 39.29 39.39 39.67 40.09
31.23 30.91 30.28 31.27 30.92 29.39 28.57 28.06 27.12 29.87 29.76 27.54 31.26 30.13 32.60 34.15 37.22 37.80 37.97 38.07 38.12 38.17 38.29 38.53 38.81 39.00 39.35
32.15 31.74 31.77 32.22 31.39 30.85 29.91 29.54 30.09 30.57 31.26 26.48 30.35 29.41 31.77 32.51 36.86 37.44 37.58 37.67 37.65 37.54 37.71 37.96 38.16 38.29 38.38
33.48 33.61 33.59 33.83 33.48 30.37 27.49 25.95 25.09 26.91 29.87 27.39 27.53 27.81 29.65 30.02 31.66 36.14 36.97 36.94 37.00 37.19 37.30 37.21 37.14 37.36 35.95
29.05 30.40 31.45 30.54 32.48 29.35 27.59 24.50 26.06 24.83 28.01 25.63 25.55 26.28 25.15 28.59 29.59 30.34 30.48 34.90 36.08 36.43 36.33 36.50 36.55 33.63 32.24
27.21 27.06 27.19 27.84 28.39 28.91 28.86 26.80 26.09 24.81 28.43 28.30 24.54 25.31 25.99 25.18 27.61 28.97 28.95 29.16 30.08 31.50 34.71 35.07 35.34 34.69 31.35
24.81 24.80 26.03 27.64 28.98 30.16 30.18 29.90 29.83 28.26 28.53 29.05 25.89 24.79 23.61 22.56 21.95 25.45 26.68 27.96 28.21 27.96 29.20 32.35 34.18 35.04 35.44
24.16 25.97 27.79 28.36 27.00 26.79 28.66 29.18 28.80 28.87 29.00 27.61 27.09 26.24 24.86 22.38 22.08 23.25 24.40 25.58 27.02 26.56 27.40 28.30 29.03 30.71 29.58
24.78 25.58 26.15 25.78 25.83 27.68 26.95 26.91 26.55 26.66 28.86 30.13 29.40 28.28 25.83 25.67 25.02 23.75 25.39 23.80 26.39 26.51 26.98 27.98 28.93 29.57 30.00
25.22 24.78 24.96 25.04 25.30 26.94 26.49 25.97 24.07 23.61 25.13 28.72 31.29 31.24 29.96 27.96 25.31 25.79 25.82 26.30 27.79 27.67 27.80 27.42 28.73 29.19 30.26
24.47 23.96 23.53 23.47 23.15 23.92 24.48 24.27 24.09 25.00 25.31 27.10 27.74 27.15 27.67 29.23 31.63 26.65 26.99 26.86 28.21 29.06 29.71 28.17 28.44 31.20 32.18
23.58 23.52 23.52 22.57 22.61 22.40 23.00 23.59 23.77 24.28 25.19 26.97 26.89 25.68 23.40 22.08 27.12 34.09 27.65 27.90 27.95 27.60 28.18 28.27 27.97 29.41 31.46

GFSFLT2_sfc_wetblb_042.txt.gz
Wetbulb
33.68 34.49 34.36 35.22 36.58 37.02 37.47 37.05 37.26 40.24 41.05 41.36 41.53 41.54 41.57 41.75 41.78 42.03 42.57 43.19 43.66 44.19 44.89 45.48 45.96 45.96 46.38
32.88 32.76 33.67 34.64 34.82 34.25 35.57 36.68 35.96 37.83 39.56 40.24 40.69 41.05 41.01 40.85 40.67 41.28 41.59 41.73 42.19 42.58 43.20 43.85 44.27 44.63 45.20
32.51 32.71 32.48 33.48 33.67 34.24 34.07 34.23 35.40 37.63 39.36 39.88 39.33 39.27 39.64 40.15 40.71 40.80 40.82 41.01 41.40 41.52 41.72 42.05 42.45 42.94 43.70
32.54 32.43 32.99 33.83 33.42 32.04 30.61 32.83 31.72 35.08 35.61 36.40 37.72 38.19 39.11 39.40 39.37 39.24 39.06 39.35 39.91 40.34 40.53 40.57 40.74 41.36 42.13
31.66 31.66 31.57 30.24 29.17 30.43 29.35 29.20 29.00 30.14 28.20 28.37 29.13 29.88 31.40 35.63 36.38 37.22 37.61 38.52 39.25 39.65 40.05 40.42 40.53 40.77 41.39
31.06 27.78 27.84 28.15 28.51 27.05 25.63 23.71 21.89 28.33 25.97 27.43 28.46 28.95 29.18 29.87 35.88 37.50 38.30 38.89 39.16 39.42 39.68 39.98 39.96 40.18 40.24
28.81 28.11 27.08 27.11 27.19 25.33 25.51 23.29 23.32 26.65 25.82 25.81 26.94 27.13 28.71 32.20 36.17 37.15 37.88 38.45 38.83 39.03 39.15 39.34 39.46 39.73 39.78
28.82 28.51 28.55 29.19 28.25 26.38 26.17 25.44 26.49 26.72 26.75 22.60 25.08 26.15 27.99 27.66 35.19 36.38 36.91 37.55 38.18 38.38 38.47 38.58 38.63 38.72 38.79
33.64 33.98 34.10 33.88 33.03 26.77 21.20 18.70 20.83 23.53 25.99 24.04 24.21 24.23 25.47 27.32 27.69 34.68 36.01 36.34 36.46 36.90 37.54 37.84 38.00 38.14 36.75
26.06 27.37 28.99 27.48 32.61 27.11 22.35 13.60 14.63 17.19 24.71 20.52 22.84 23.63 19.93 25.83 25.72 27.82 27.77 32.61 34.38 34.54 35.28 36.00 36.47 33.77 32.12
23.51 23.28 23.31 23.26 23.86 24.47 25.36 18.01 12.70 21.44 27.29 27.39 14.10 18.61 24.68 24.30 25.80 25.85 26.20 25.88 26.26 28.16 31.75 32.84 33.73 33.81 31.41
21.45 20.76 20.56 20.65 22.26 23.80 27.29 26.50 27.19 26.06 27.10 28.74 25.14 22.55 23.79 22.72 22.19 24.61 25.08 25.99 25.92 25.63 26.56 29.69 32.33 33.63 34.55
21.01 19.53 19.45 19.82 19.38 19.87 21.95 28.19 28.56 28.72 29.62 29.02 26.85 25.60 25.50 23.53 23.17 24.20 25.43 25.98 26.81 25.75 24.77 25.57 25.88 26.81 26.03
20.87 22.52 22.88 18.38 19.21 20.41 19.58 26.37 25.88 26.49 29.84 29.93 26.48 25.36 25.21 26.06 25.70 24.31 25.37 24.21 24.86 26.77 26.71 26.76 27.06 27.56 27.52
22.03 23.02 24.01 23.80 23.97 25.36 25.08 25.20 23.94 23.74 24.45 26.72 29.15 30.03 30.18 29.01 26.35 26.13 25.67 25.53 26.45 26.10 26.39 26.43 27.73 28.48 28.66
24.03 23.18 22.64 23.00 23.02 23.65 24.29 23.39 22.21 22.94 23.83 25.56 26.42 26.57 27.30 28.30 31.29 26.84 26.97 27.31 27.91 27.89 27.80 26.94 27.49 29.33 30.35
22.88 22.76 23.32 23.02 22.91 22.12 22.15 22.09 21.46 22.51 23.75 25.18 24.83 23.94 21.27 20.19 25.55 32.70 26.90 27.29 27.32 28.02 28.06 27.39 26.91 27.91 29.52

GFSFLT2_sfc_wetblb_045.txt.gz
Wetbulb
34.87 35.74 35.69 37.84 39.29 38.07 38.50 38.12 38.17 41.12 42.77 44.13 43.91 42.95 42.67 42.81 42.72 43.02 43.06 43.34 43.74 44.45 45.13 45.70 46.18 46.43 46.59
33.49 33.36 34.48 35.71 36.22 35.69 36.95 38.42 37.87 39.40 41.01 41.22 41.27 41.47 42.04 42.06 41.63 41.50 41.41 42.03 42.39 42.92 43.40 43.97 44.53 44.98 45.34
32.67 32.72 32.06 33.36 33.59 34.93 34.92 35.03 35.88 37.63 39.53 40.22 40.74 40.10 40.06 40.09 40.55 41.06 41.24 41.22 41.41 41.61 41.69 42.25 42.58 43.33 44.00
32.73 32.41 33.21 33.94 34.07 32.72 32.19 33.35 32.58 35.24 36.48 36.19 37.46 38.00 38.40 38.85 39.40 38.78 38.74 39.13 39.68 40.21 40.59 40.85 41.12 41.63 42.33
32.14 32.08 31.98 31.88 31.11 31.79 30.63 29.76 28.72 29.46 27.97 28.10 28.23 28.97 30.02 34.26 35.41 36.51 36.87 37.79 38.91 39.79 40.42 40.74 40.87 41.16 41.37
31.48 30.30 30.43 29.82 29.21 28.80 26.63 23.12 21.69 27.14 26.01 26.58 27.42 26.92 27.75 28.25 35.01 36.66 37.67 38.45 38.85 39.47 39.82 40.25 40.39 40.40 40.58
29.61 29.06 27.54 26.80 25.21 24.19 25.90 23.11 23.06 26.02 26.01 25.02 26.64 26.34 27.87 30.79 35.49 36.40 37.20 37.89 38.48 38.84 39.17 39.59 39.83 39.98 39.85
30.62 28.34 27.12 27.79 27.81 26.26 25.85 25.06 26.06 26.41 26.46 20.04 24.37 24.88 27.00 26.73 34.36 35.48 35.97 36.85 37.72 37.76 37.81 38.07 38.38 38.79 39.16
33.76 34.00 34.13 34.43 32.76 26.08 20.63 17.77 19.98 22.94 25.22 23.50 23.41 23.53 24.66 24.55 26.28 33.31 34.19 34.72 35.13 35.60 36.14 36.32 36.47 37.14 36.31
24.62 25.87 27.47 26.19 31.99 26.42 21.68 13.06 12.59 13.74 23.93 20.11 22.21 23.10 19.11 24.37 25.16 25.95 25.84 30.98 32.76 33.26 33.67 34.11 34.44 31.03 29.58
22.70 22.30 22.09 22.08 23.03 23.57 24.54 15.57 9.26 14.42 25.31 26.00 20.21 24.41 25.10 20.84 24.46 24.78 24.66 24.77 24.89 26.94 30.99 32.20 32.79 32.80 30.21
20.97 20.09 19.76 19.06 20.76 22.11 25.85 22.45 21.83 23.56 26.32 28.83 25.17 23.83 23.21 22.15 22.38 24.48 24.75 26.09 24.76 25.23 24.29 29.02 32.19 33.38 33.94
20.64 18.54 17.84 18.16 17.40 18.26 20.25 23.59 22.64 25.67 29.58 28.10 27.10 26.66 25.25 23.21 23.04 23.53 24.71 24.56 25.93 25.78 25.13 23.04 24.35 25.91 24.41
20.32 21.96 22.50 17.43 18.37 19.34 16.79 20.60 20.58 21.97 26.42 29.71 28.76 27.62 24.95 24.39 24.73 23.77 24.89 23.56 25.00 26.75 26.28 26.62 26.99 27.27 26.63
20.80 21.97 23.67 23.90 23.69 25.09 24.66 23.43 21.46 20.79 21.82 25.46 28.39 28.45 27.62 26.23 24.65 26.23 25.79 25.94 27.71 27.18 26.22 26.00 28.10 28.83 28.38
24.04 23.10 21.97 22.35 22.32 23.72 24.21 22.81 20.87 20.28 20.59 21.77 23.44 24.43 25.04 26.12 30.35 26.35 26.58 26.43 27.67 27.48 27.77 26.59 26.74 29.48 29.63
23.45 22.97 22.99 23.02 22.49 21.01 21.20 21.58 20.12 20.26 20.59 21.07 20.08 20.60 18.43 17.10 23.08 30.28 24.20 25.25 25.21 25.73 27.58 26.79 25.47 27.12 28.71

GFSFLT2_sfc_wetblb_048.txt.gz
Wetbulb
36.32 36.64 37.28 39.84 41.60 39.28 40.85 40.37 40.61 44.70 45.24 44.82 44.40 44.72 45.64 45.64 44.43 44.31 44.31 44.43 44.70 44.91 45.65 46.24 46.68 47.03 47.44
34.22 34.26 35.01 36.99 36.97 36.80 38.01 39.01 38.26 40.00 42.30 42.87 43.72 44.03 43.28 43.05 43.10 43.29 42.68 42.48 42.60 43.16 43.84 44.36 44.96 45.35 45.80
33.05 33.30 32.82 34.09 33.02 34.86 35.11 36.36 37.69 39.13 41.06 41.79 41.96 42.20 42.65 41.91 41.14 41.00 41.26 41.73 42.11 42.01 42.22 42.49 43.02 43.68 44.32
33.61 33.02 33.17 33.24 33.89 33.40 32.92 34.75 34.33 36.18 37.07 38.03 38.21 38.22 38.94 39.19 39.07 39.42 39.41 39.09 39.67 40.37 40.57 40.99 41.34 41.99 42.66
32.71 32.58 32.48 32.21 31.48 33.20 31.83 31.55 31.11 31.55 29.74 28.57 28.58 28.95 29.55 34.02 34.88 36.51 37.39 37.67 38.26 39.16 40.16 40.89 41.23 41.43 41.55
31.55 30.50 30.79 31.15 30.96 30.06 28.26 25.21 22.51 27.05 25.67 25.59 27.38 27.38 28.04 28.01 33.86 36.12 37.13 37.95 38.96 39.26 39.72 40.21 40.49 40.62 40.78
29.87 28.18 27.05 26.67 26.15 22.88 24.30 20.67 21.97 24.98 25.33 24.68 26.04 26.21 27.27 29.74 34.88 35.85 36.83 37.63 38.27 38.71 39.08 39.45 39.82 40.05 40.26
29.50 27.69 27.30 27.08 26.63 24.34 24.53 23.52 25.52 25.98 26.17 19.34 23.45 23.85 25.68 26.01 33.35 35.09 36.16 36.76 37.27 37.77 38.05 37.96 38.10 38.50 38.97
33.06 33.26 33.65 33.73 32.00 25.61 19.97 16.44 19.34 22.57 24.61 23.10 22.95 23.22 24.39 24.13 25.92 33.76 34.45 34.27 34.60 35.22 35.94 36.15 36.29 36.72 35.15
24.48 25.30 26.55 25.51 30.91 25.99 21.16 11.64 11.88 14.02 23.14 19.76 21.94 22.75 17.64 23.47 25.03 25.45 25.42 30.94 32.93 33.87 34.32 34.67 34.80 30.51 27.97
22.07 21.55 21.48 21.49 22.74 23.45 23.94 14.35 7.35 11.61 24.05 23.97 20.84 25.49 24.47 21.64 24.02 24.75 24.26 25.09 25.23 27.45 31.82 33.56 33.94 33.13 26.68
20.53 19.64 19.26 18.18 20.31 21.42 24.89 21.71 20.48 20.01 23.27 24.17 25.13 24.32 22.93 22.49 22.31 24.03 24.03 24.14 24.65 25.39 25.32 29.00 32.59 34.08 34.70
19.78 17.68 16.98 17.20 16.08 17.33 19.45 22.19 20.43 22.23 26.79 27.39 26.88 26.34 25.58 23.57 22.97 24.00 24.79 22.96 24.35 24.89 25.10 23.85 24.63 24.44 23.92
19.57 21.47 22.12 15.86 18.27 21.64 22.52 24.12 16.54 21.14 23.83 23.38 28.03 27.60 25.33 25.56 25.10 22.80 23.21 22.24 21.12 22.98 23.32 26.23 26.57 26.60 26.10
20.16 21.68 23.44 23.54 23.19 20.77 24.02 23.84 19.42 17.91 19.70 21.16 23.98 24.34 25.68 24.34 23.29 23.95 23.63 24.28 26.46 27.32 27.52 26.44 28.03 29.17 29.29
23.43 23.57 22.77 22.50 22.63 23.65 23.14 19.07 19.30 19.21 18.81 18.66 15.74 17.00 19.91 22.87 28.53 24.45 25.25 25.68 26.80 27.18 26.88 25.68 25.70 27.62 28.66
23.18 22.72 22.70 22.62 22.07 20.71 19.18 19.75 19.50 19.18 19.18 19.39 9.19 11.94 16.40 15.06 20.63 29.05 22.33 22.99 23.42 23.20 24.59 24.69 24.23 25.90 27.33

GFSFLT2_sfc_wetblb_051.txt.gz
Wetbulb
37.67 37.54 38.27 40.52 40.99 40.54 42.96 41.56 44.21 47.53 47.55 47.08 47.14 46.59 46.17 45.95 46.43 47.39 47.17 46.57 46.64 46.78 47.18 47.19 47.52 47.60 47.79
35.08 35.20 35.47 37.25 37.68 38.23 39.74 40.46 39.68 41.06 44.18 44.66 44.90 44.57 44.69 45.54 45.25 44.76 44.43 44.91 44.58 44.16 44.33 44.87 45.47 45.91 46.52
34.22 34.04 33.62 34.96 34.00 35.18 36.15 36.80 38.61 39.35 41.17 42.96 43.63 43.75 43.64 44.16 44.30 44.12 42.75 42.07 42.24 42.52 43.24 43.42 43.72 44.20 44.73
34.03 33.38 33.87 33.48 34.14 33.77 33.19 34.82 35.07 37.75 38.61 39.46 39.20 39.32 40.43 40.32 40.17 39.91 39.83 40.47 40.71 41.05 41.27 41.42 41.48 42.10 42.88
33.33 33.42 33.12 32.70 31.87 33.33 32.16 32.80 32.80 33.38 30.99 30.22 29.61 29.44 29.33 33.42 34.72 36.31 37.23 38.27 39.22 39.59 39.86 40.44 40.88 41.55 42.15
31.59 30.52 30.66 31.13 31.62 30.97 29.49 26.70 23.36 27.03 25.42 25.92 27.29 27.08 27.21 27.75 33.53 35.61 36.65 37.44 38.16 39.06 39.97 40.55 40.67 41.08 41.24
26.71 25.95 25.51 25.26 23.64 21.52 23.69 20.23 21.69 24.67 24.90 23.50 25.34 25.11 25.98 28.54 34.09 35.83 36.84 37.66 38.45 38.90 39.26 39.66 39.86 40.12 40.37
27.33 26.59 26.26 26.32 25.89 23.15 23.76 22.45 25.10 25.79 25.60 18.14 22.59 23.27 24.89 25.37 32.83 35.01 36.25 37.16 37.77 38.25 38.72 38.71 38.63 38.67 39.08
32.79 32.93 33.22 33.40 31.41 25.09 23.00 16.40 18.94 22.46 24.12 22.50 22.41 22.97 24.27 24.04 25.70 33.01 35.56 35.13 34.75 35.28 35.91 36.42 36.59 36.94 35.30
24.04 24.68 25.67 24.67 29.40 25.42 20.87 11.13 11.15 12.88 22.45 19.42 21.40 22.24 17.58 23.03 24.54 25.11 25.27 30.67 32.96 34.08 34.85 34.90 35.45 30.87 28.49
21.50 21.00 21.02 21.60 22.86 24.15 23.38 12.90 6.41 10.39 23.15 20.73 12.02 25.19 24.64 22.08 23.91 24.49 24.31 25.20 24.90 26.78 31.24 32.87 34.09 33.70 25.79
19.65 19.26 19.12 17.87 19.47 20.27 23.19 20.52 19.31 18.40 21.56 17.00 17.73 19.03 22.79 22.65 22.41 23.73 23.38 23.87 22.99 25.14 25.44 29.02 32.31 33.55 35.06
18.80 16.78 16.23 16.50 15.67 16.88 19.26 21.74 18.91 21.42 25.86 16.73 19.80 22.77 25.33 22.58 21.63 22.50 24.60 23.30 24.57 24.40 24.01 24.01 23.48 22.92 24.26
18.76 21.05 21.66 15.48 18.39 25.04 22.80 24.05 23.25 19.93 22.73 18.90 16.94 21.50 24.06 24.81 24.96 23.07 23.53 20.95 19.66 19.11 20.50 24.48 26.94 27.41 27.23
19.08 21.59 23.74 23.94 23.55 24.32 23.65 23.62 20.21 17.48 19.02 20.31 22.66 21.44 21.70 21.84 22.00 23.40 23.40 24.01 25.66 25.23 24.65 26.06 27.80 28.66 28.66
18.95 23.44 22.95 22.77 22.67 23.45 24.24 16.55 16.81 17.94 17.91 16.94 14.32 14.31 18.03 20.17 26.29 21.92 23.02 23.95 24.76 24.71 25.00 24.13 24.32 26.62 27.55
12.23 13.78 20.37 22.27 22.14 21.10 20.08 16.73 17.86 17.97 18.18 13.97 6.84 11.93 14.60 13.84 19.42 29.07 22.12 22.61 22.33 22.31 23.38 23.03 22.38 24.47 26.09

GFSFLT2_sfc_wetblb_054.txt.gz
Wetbulb
38.57 37.93 38.60 40.05 40.57 41.69 42.56 42.81 44.21 49.49 50.08 48.37 47.76 47.88 48.03 48.55 47.72 47.22 47.23 48.37 49.19 48.48 48.97 49.12 49.11 49.16 49.20
35.25 35.70 35.57 37.12 38.19 38.67 40.27 40.87 40.42 42.93 44.97 45.10 45.05 45.19 45.67 46.00 45.65 46.29 46.14 45.85 45.66 46.42 46.61 45.86 45.88 46.27 46.86
34.83 34.68 34.24 35.27 34.73 35.66 36.64 36.97 38.78 39.88 40.95 42.12 43.11 44.30 44.97 45.26 45.13 45.13 45.11 44.77 43.61 43.05 43.20 43.41 44.19 44.71 45.30
34.23 33.78 34.22 34.31 34.82 34.13 33.51 35.49 35.37 38.00 39.19 40.16 40.88 41.37 41.10 41.49 41.29 40.45 40.06 40.44 41.08 41.69 41.76 41.97 41.97 42.34 42.97
33.25 33.37 32.94 32.50 31.98 33.06 32.08 32.54 33.10 33.99 31.80 30.88 29.65 29.78 30.53 33.55 34.34 35.82 36.69 37.55 38.43 39.56 40.47 40.78 40.70 41.09 41.61
25.04 26.96 26.83 27.23 27.63 26.77 25.33 22.00 21.26 25.85 24.79 25.25 26.76 26.50 27.39 27.51 33.47 35.35 36.13 37.04 37.81 37.98 38.71 39.51 40.26 41.00 41.30
25.31 24.69 24.29 24.56 22.39 20.41 22.88 19.47 21.13 24.67 24.73 23.30 25.19 24.82 25.96 27.70 32.93 34.90 36.30 37.27 37.98 38.58 39.22 39.44 39.69 40.06 40.46
26.33 26.00 25.88 26.12 25.62 22.36 23.41 22.01 24.81 25.54 25.02 16.74 22.37 22.92 24.41 25.19 31.86 33.91 35.55 36.86 37.60 38.19 38.54 38.68 39.05 39.36 39.48
32.19 32.34 32.36 32.35 30.94 24.77 19.66 15.82 18.68 22.06 23.56 22.18 22.01 22.71 24.01 23.76 25.56 34.13 35.04 35.55 35.85 35.70 36.13 36.72 36.94 37.23 35.48
23.32 23.84 24.53 23.76 28.53 24.77 19.94 10.60 11.15 12.54 21.78 18.83 20.69 21.63 17.19 22.90 24.37 25.15 26.28 30.98 32.66 33.44 34.38 35.96 35.54 31.11 29.85
20.49 20.10 20.91 22.74 23.44 23.75 22.87 11.98 5.84 9.18 22.57 19.18 8.83 18.88 20.48 19.60 23.71 24.57 24.42 25.26 25.24 26.82 31.42 33.13 34.10 33.56 27.56
19.04 19.06 18.76 17.60 18.92 19.60 22.42 20.09 18.79 17.52 20.78 15.60 11.51 12.86 10.34 19.04 21.11 23.28 23.16 23.69 23.46 25.11 24.43 28.79 32.23 33.23 34.25
18.51 16.27 15.72 16.24 14.82 16.05 18.53 21.26 19.24 21.04 25.45 14.76 13.36 10.82 18.99 20.80 21.41 21.85 23.90 22.79 23.46 23.13 24.06 22.03 23.35 23.01 23.79
17.92 20.62 21.22 14.90 16.65 24.75 23.63 18.44 18.29 18.59 22.06 17.26 12.35 13.99 21.30 22.98 22.98 22.50 23.34 22.27 18.64 18.90 20.76 22.39 24.74 25.76 26.11
18.23 19.51 22.62 23.54 23.84 24.75 24.03 23.19 21.62 14.12 18.19 20.37 21.67 20.15 19.10 18.88 18.50 20.67 21.29 21.79 23.03 23.35 24.39 24.61 26.38 26.72 28.08
14.64 14.70 16.99 17.65 18.82 21.92 23.88 22.31 16.38 17.21 16.92 16.13 13.00 12.86 15.69 19.52 24.96 19.86 20.62 20.66 22.12 22.95 23.33 23.07 23.70 25.92 27.14
7.82 7.74 11.56 11.64 20.71 15.33 18.37 19.15 16.28 16.55 16.75 12.68 5.17 8.65 12.75 12.12 18.74 28.70 20.95 21.24 21.64 22.19 22.67 22.32 21.58 23.59 25.84

GFSFLT2_sfc_wetblb_057.txt.gz
Wetbulb
41.21 40.31 41.58 40.94 41.75 43.20 44.36 43.94 43.97 47.30 49.58 49.66 48.87 48.37 47.94 47.64 48.06 47.79 47.08 47.60 48.03 49.20 50.89 50.02 50.44 50.39 50.48
38.37 38.80 38.46 38.87 38.98 40.21 40.49 40.79 41.11 43.29 45.04 45.60 45.71 45.73 45.71 45.60 45.55 45.88 45.99 46.77 46.69 46.64 46.54 47.73 47.93 47.60 48.00
37.79 37.85 37.74 36.98 38.11 37.74 37.57 38.15 39.41 40.88 42.01 42.70 43.53 44.11 44.68 44.98 45.67 45.95 45.62 45.53 45.17 44.00 43.79 44.26 45.03 45.39 46.29
36.53 36.33 35.90 35.39 36.03 35.36 35.57 36.77 36.37 37.86 38.52 39.56 40.84 40.80 41.43 41.38 41.42 40.65 39.72 40.24 41.17 42.05 42.72 42.77 42.75 43.22 43.84
35.53 35.58 35.15 35.00 32.57 34.86 34.35 35.00 35.70 33.34 33.44 34.46 34.63 35.50 36.89 36.04 35.38 35.60 36.49 37.58 38.41 39.37 40.15 41.20 41.52 41.67 41.94
33.05 32.31 31.49 31.72 32.10 31.52 31.49 30.91 30.51 32.42 31.63 32.41 33.66 33.31 34.25 34.52 34.27 35.50 36.34 36.90 37.55 38.23 38.65 39.19 39.99 40.42 40.84
31.21 30.94 30.53 30.85 30.28 30.15 30.02 29.94 29.55 31.64 30.66 29.13 31.99 30.30 32.47 32.11 32.96 34.72 35.82 36.79 37.63 38.11 38.75 39.29 39.80 40.39 40.55
32.05 31.79 32.01 32.06 31.66 30.95 30.62 30.14 30.48 31.17 30.91 26.61 30.03 29.27 31.86 32.33 31.45 34.21 35.19 36.40 37.33 38.00 38.60 38.78 39.19 39.59 39.87
31.78 31.69 31.64 31.54 32.47 31.49 29.40 27.82 25.96 27.63 29.44 27.62 28.66 28.14 29.82 30.54 31.96 32.86 33.99 35.44 36.63 37.19 37.11 37.46 37.90 38.11 37.91
27.46 27.15 26.80 27.45 29.07 28.75 28.74 26.30 26.02 25.58 28.02 27.01 27.20 27.41 26.85 30.24 30.83 31.85 32.06 32.17 33.16 34.08 35.07 35.18 36.40 36.72 35.78
25.37 25.83 27.10 27.86 28.44 28.46 27.62 26.90 25.43 25.66 28.18 28.82 27.16 27.42 27.40 26.89 29.16 30.40 30.64 31.16 31.52 31.77 32.04 33.03 33.94 34.31 33.77
23.61 24.57 25.51 26.53 27.35 27.40 27.05 27.74 27.02 26.30 28.11 26.17 26.13 25.88 25.36 23.96 24.69 28.99 29.89 30.54 30.60 30.19 31.14 31.28 32.09 33.25 34.23
23.08 24.30 25.56 26.22 24.98 25.74 26.91 26.94 27.13 27.01 28.23 26.43 25.68 25.57 24.25 23.43 24.22 25.54 26.18 29.02 29.99 29.58 30.13 30.19 29.96 30.40 29.14
23.56 24.72 25.52 25.27 25.55 26.45 25.18 25.69 25.02 25.79 27.41 27.22 25.00 23.40 23.86 24.51 24.59 23.43 26.03 24.95 29.02 29.27 29.09 29.05 29.61 29.75 29.52
23.44 23.36 23.89 24.75 25.01 26.41 25.43 24.86 23.24 23.85 24.29 25.75 26.28 26.01 25.18 23.63 22.26 24.05 24.60 26.18 28.27 27.88 27.18 26.86 28.82 30.04 30.34
22.53 22.39 22.67 23.02 23.19 24.14 24.88 24.40 22.50 22.57 22.31 23.51 22.89 21.79 22.84 25.14 26.58 24.21 25.69 25.75 27.15 27.35 26.93 25.00 25.36 29.35 30.27
20.45 20.69 20.43 20.29 21.41 21.78 22.12 22.20 21.54 22.06 22.24 22.67 20.81 18.72 17.65 17.81 25.04 28.84 25.66 26.35 26.59 26.13 26.99 26.58 26.51 28.40 29.28

GFSFLT2_sfc_wetblb_060.txt.gz
Wetbulb
43.36 43.95 45.30 45.18 44.86 45.05 44.98 45.07 45.28 46.73 47.55 48.12 48.42 48.85 49.10 48.97 48.75 48.78 48.29 47.93 47.80 48.38 49.63 50.21 51.01 51.13 51.25
42.34 43.09 42.01 42.24 42.34 42.09 42.07 42.40 43.47 43.39 44.86 45.29 45.73 45.92 45.96 45.88 45.69 45.76 45.58 45.79 46.52 47.07 47.35 47.36 48.25 48.50 48.29
40.40 40.77 40.20 39.21 38.87 40.68 40.77 40.85 41.29 40.58 41.77 42.22 43.24 43.34 43.43 43.73 44.24 44.20 44.98 44.77 44.91 44.17 43.89 44.41 45.29 46.17 46.97
39.07 38.87 37.74 37.38 37.42 36.44 39.49 40.34 39.31 39.77 39.02 38.52 38.85 38.90 40.23 40.65 40.58 39.27 39.25 40.00 41.17 42.32 43.10 43.53 43.84 44.12 44.83
38.49 38.54 37.59 36.56 35.28 37.12 37.22 37.61 38.56 36.77 37.12 38.09 37.76 38.63 39.17 38.00 36.92 35.94 36.45 37.52 38.58 39.76 40.83 41.47 41.75 42.69 42.83
37.69 36.91 35.75 35.68 36.01 34.79 33.96 33.05 32.76 36.32 33.90 34.34 36.37 35.38 36.68 37.22 35.56 35.36 36.32 37.21 37.81 38.22 38.80 39.20 39.51 40.40 41.44
34.28 34.34 33.78 33.87 33.35 32.74 32.67 32.38 31.93 33.73 32.22 31.26 34.48 32.65 35.11 34.87 33.79 34.59 35.73 36.57 37.19 37.76 38.14 38.69 39.55 39.77 40.04
35.10 34.84 35.09 35.28 34.60 33.51 32.76 32.26 33.05 33.51 32.63 28.75 33.35 32.40 34.92 35.51 32.28 34.67 35.79 36.47 36.80 37.73 38.33 38.90 39.24 39.42 40.00
31.80 31.75 31.78 31.74 32.91 33.50 31.44 29.46 28.56 30.18 32.29 29.97 31.83 30.99 33.09 33.62 34.83 32.62 33.63 34.71 36.15 37.41 37.88 37.87 38.29 38.88 39.11
30.82 29.90 29.30 29.96 29.67 30.68 30.89 28.28 28.36 28.79 31.02 28.99 29.74 29.77 29.52 34.16 33.85 34.66 34.61 33.03 33.80 34.46 35.35 36.20 36.52 36.06 36.42
28.84 29.42 29.92 30.52 31.18 31.09 30.58 30.45 28.92 28.76 30.76 30.60 28.66 29.42 29.46 29.44 31.91 33.49 33.53 33.63 33.91 34.03 33.90 34.76 35.41 35.42 34.76
27.13 27.68 28.21 29.16 30.16 30.33 29.66 30.28 30.73 29.24 30.89 29.60 27.68 27.43 26.45 25.25 27.17 32.06 33.05 33.68 33.44 32.74 33.53 33.82 34.09 34.50 35.40
26.31 27.45 28.81 29.93 28.94 28.97 29.55 29.29 29.10 29.53 29.44 29.39 28.22 27.65 26.09 24.56 26.06 27.61 28.06 31.56 32.64 32.29 32.51 32.87 32.74 33.33 32.03
26.81 27.70 28.45 28.29 27.91 29.12 27.62 27.98 26.99 28.07 30.32 30.18 29.02 27.59 25.71 26.52 26.85 25.59 28.11 26.92 31.78 31.95 32.32 32.26 32.15 32.49 32.44
26.45 26.32 26.19 26.89 27.28 28.62 27.92 27.36 25.86 26.37 27.54 29.33 29.43 28.59 27.94 26.70 24.52 26.04 26.80 28.26 31.23 31.67 29.95 29.20 30.81 32.08 32.29
26.16 25.96 25.35 25.74 26.04 26.73 26.95 26.23 25.76 26.20 26.14 27.27 27.01 25.58 25.63 27.96 28.76 25.70 27.59 28.85 30.60 30.68 29.32 26.75 27.32 31.45 32.19
25.16 25.12 24.95 24.45 23.97 24.07 24.94 24.84 24.49 25.17 25.83 26.71 25.55 23.36 20.42 20.52 28.23 30.53 27.40 28.26 28.82 28.46 29.89 29.64 28.95 30.74 32.25

GFSFLT2_sfc_wetblb_063.txt.gz
Wetbulb
44.61 44.92 45.65 44.15 44.13 44.34 44.51 43.76 44.99 45.79 47.23 47.67 47.83 48.00 48.88 49.48 49.83 49.89 49.59 49.44 49.24 49.36 49.99 50.00 50.11 50.59 50.83
42.83 43.04 41.75 41.80 42.33 41.76 41.93 42.67 42.99 42.95 44.47 45.08 45.67 46.19 46.78 46.74 46.56 46.24 45.96 45.95 46.22 46.89 47.42 47.65 47.74 48.80 48.26
39.54 41.41 40.60 39.05 38.46 39.95 40.53 40.41 41.75 40.78 41.20 41.99 42.40 43.50 44.08 44.22 44.18 43.65 44.70 45.30 45.34 45.28 45.06 44.97 45.35 46.22 47.30
39.80 39.09 38.05 38.01 38.08 36.77 38.40 39.89 38.55 39.21 39.50 38.42 38.94 39.10 40.27 40.69 40.31 39.21 39.65 40.33 41.40 42.47 43.16 43.64 44.01 44.59 45.04
38.79 38.59 37.02 36.48 35.03 36.29 34.45 35.15 36.65 35.15 33.97 35.50 34.97 35.93 36.74 37.72 37.45 36.83 37.55 38.16 38.93 39.77 40.72 41.70 42.30 42.79 43.61
35.81 35.36 35.39 34.05 34.10 32.00 31.22 30.28 29.88 33.37 30.36 30.22 32.73 31.26 32.71 32.79 35.43 35.33 35.98 36.68 37.40 38.33 38.90 39.26 39.70 39.89 40.42
32.12 31.91 31.33 31.91 31.42 31.10 30.62 29.95 29.14 31.12 29.39 27.48 30.72 29.00 31.42 33.89 35.06 34.95 36.14 36.72 37.09 37.50 38.03 38.44 38.71 39.33 39.85
33.65 33.11 33.01 33.49 32.56 31.78 30.35 29.80 30.68 30.70 29.47 25.49 29.54 28.71 31.12 31.82 33.90 34.66 35.53 36.04 37.21 37.22 37.98 38.53 38.91 39.29 39.62
31.77 31.65 31.73 31.94 32.11 30.60 29.56 27.73 26.37 26.45 28.68 26.56 28.18 27.49 29.27 29.56 31.03 34.05 34.38 34.84 35.82 37.09 37.99 38.19 38.06 38.66 38.48
29.24 28.99 29.15 29.02 30.01 28.29 28.51 24.99 26.52 26.36 27.46 25.99 27.15 27.03 25.47 30.09 29.68 30.71 30.40 35.24 34.25 35.01 35.98 36.42 36.98 34.96 34.15
26.67 26.65 27.03 27.90 28.23 28.48 28.22 27.51 25.43 25.81 28.30 27.49 27.09 25.88 25.81 25.95 28.38 29.61 29.54 29.54 29.97 31.18 35.13 35.24 35.90 35.74 31.24
25.28 25.35 25.82 27.20 28.21 28.43 28.17 28.34 28.79 26.38 28.55 27.15 22.49 25.77 25.35 24.21 23.56 27.94 28.58 29.05 29.02 28.55 28.86 33.13 35.33 35.78 36.13
24.53 25.81 27.33 28.21 26.52 26.36 27.63 28.09 28.60 27.66 28.67 24.78 27.02 26.80 26.60 23.91 23.28 23.97 25.32 26.54 28.47 27.54 27.40 27.12 28.14 28.12 26.70
25.08 25.80 26.39 26.50 25.95 27.23 25.67 26.13 26.35 25.78 30.00 27.57 28.18 26.63 23.89 23.92 23.94 23.97 24.85 22.76 25.68 25.96 26.80 27.25 28.97 29.49 29.35
24.60 24.66 25.25 25.41 25.87 26.73 26.22 25.11 23.30 23.60 24.80 27.44 28.02 26.70 26.24 23.63 22.20 23.22 23.52 24.30 26.08 26.37 26.06 28.14 29.14 28.64 29.58
25.17 24.87 24.08 24.10 24.36 25.20 24.97 23.62 22.97 23.73 23.14 24.18 24.05 23.62 23.30 25.07 28.67 22.86 23.49 24.05 25.79 28.56 29.12 26.83 26.43 28.26 29.29
23.77 23.17 23.07 22.65 23.37 22.36 22.61 22.91 22.51 22.59 22.61 22.46 20.29 20.75 19.21 16.96 23.07 32.01 23.62 24.22 24.16 25.54 26.13 26.00 25.37 27.18 28.88

GFSFLT2_sfc_wetblb_066.txt.gz
Wetbulb
43.79 43.56 42.61 41.64 41.56 42.86 43.34 42.93 44.02 45.35 46.64 47.47 47.85 48.36 48.60 48.84 49.61 50.20 50.50 50.80 50.72 50.69 50.54 50.73 51.28 51.36 51.51
41.34 40.95 40.09 38.12 37.20 40.48 41.38 42.21 41.75 42.11 43.82 45.12 45.53 45.83 46.50 47.14 47.30 47.19 46.87 46.78 46.96 47.59 48.69 49.25 48.84 49.17 49.95
37.54 39.26 38.43 36.63 37.50 39.10 39.41 36.23 40.08 41.10 41.17 41.98 42.00 42.48 44.64 45.09 44.54 43.75 44.08 45.05 45.87 45.90 45.84 45.73 45.96 46.33 47.22
37.94 36.63 36.80 36.15 36.98 34.42 32.63 35.16 33.36 36.20 37.66 38.29 39.33 39.68 40.41 40.43 40.31 39.49 39.75 40.49 41.55 42.66 43.35 43.59 44.08 44.84 44.90
35.87 36.22 35.72 34.61 31.82 31.67 28.99 29.07 30.42 30.30 28.44 29.12 30.21 30.86 32.93 36.86 37.55 37.39 37.36 38.11 38.77 39.69 40.67 41.53 42.06 42.64 43.21
34.52 33.08 31.09 29.03 28.45 26.82 26.20 22.69 23.01 27.83 25.57 25.53 27.65 26.58 28.02 28.24 35.36 35.92 36.13 36.56 37.14 37.60 38.60 39.44 39.73 40.18 40.65
27.08 26.39 26.58 27.47 26.80 25.95 25.85 23.48 24.73 26.86 25.46 23.35 25.93 25.76 27.56 31.98 35.67 35.08 36.17 37.09 37.75 37.43 37.59 38.12 38.60 39.01 39.40
28.94 28.21 28.31 28.76 28.36 27.90 26.74 26.07 26.77 26.61 25.70 19.40 24.75 25.26 26.96 27.80 35.26 34.99 35.04 35.49 36.47 37.64 37.63 38.19 38.52 38.88 39.27
32.16 32.08 32.08 32.07 30.96 26.48 22.95 20.37 21.52 22.82 25.23 24.07 24.60 24.77 25.88 26.82 28.72 34.86 35.33 36.18 35.29 36.06 37.51 38.23 37.94 38.36 35.63
26.04 27.26 28.04 27.10 30.33 25.44 22.37 15.13 18.27 19.00 24.57 21.62 24.18 24.54 20.01 26.94 27.45 28.02 28.14 34.51 35.36 35.59 35.59 36.41 36.90 32.22 30.12
23.50 23.17 23.40 24.23 24.28 25.23 25.77 18.19 14.91 15.71 26.94 21.97 15.07 19.63 17.85 20.90 25.47 26.82 26.48 27.42 27.85 29.49 34.37 35.11 35.92 34.71 31.91
22.83 22.24 21.42 21.34 22.58 23.50 25.93 24.60 23.69 21.04 24.06 22.37 13.17 14.21 13.95 21.76 21.21 25.15 25.18 26.36 25.10 25.52 25.51 31.77 34.53 35.09 36.34
21.90 21.05 20.64 21.27 20.46 21.01 22.96 24.37 23.16 24.86 27.25 18.92 17.93 16.81 23.00 23.68 22.77 23.79 23.89 23.94 26.38 23.18 23.41 23.40 24.09 24.88 24.21
21.74 23.13 23.45 19.50 20.91 21.83 19.07 20.77 18.33 21.60 26.31 24.84 21.17 20.03 24.19 24.55 24.09 22.54 21.58 19.88 21.11 22.86 24.52 25.95 26.60 27.80 26.94
21.51 22.11 23.67 22.75 23.63 21.26 21.46 18.46 16.24 16.30 20.02 23.05 25.82 23.83 23.02 17.13 18.40 21.93 21.98 21.93 23.20 23.62 21.86 24.37 28.28 30.01 29.06
19.67 19.51 19.59 18.74 19.38 19.98 18.77 16.43 15.67 18.25 18.58 19.00 18.51 24.44 21.18 22.10 27.48 22.50 22.56 21.41 22.59 22.96 25.03 26.97 26.83 27.77 27.99
15.50 14.11 14.10 14.93 21.37 16.91 16.85 16.71 15.83 16.15 16.01 15.28 11.97 10.62 15.06 18.19 20.52 28.48 21.67 17.69 20.69 23.60 22.23 23.28 23.42 25.40 27.01

GFSFLT2_sfc_wetblb_069.txt.gz
Wetbulb
43.45 43.30 41.10 41.27 41.57 42.59 43.11 42.66 43.52 44.64 45.98 46.95 47.31 48.71 49.06 49.15 49.36 49.78 50.33 50.86 51.48 51.81 51.94 52.07 52.12 52.21 52.30
41.63 40.68 39.53 38.77 37.04 40.16 41.37 42.20 40.97 41.69 43.32 44.63 44.70 45.46 46.04 46.67 47.02 47.69 47.65 47.69 47.96 48.49 49.64 50.06 49.44 49.11 49.89
37.49 39.14 37.81 37.32 37.56 38.43 39.18 35.61 38.96 40.39 40.68 41.17 41.66 42.70 43.68 44.56 43.94 43.56 43.89 45.13 45.66 46.09 46.16 46.37 46.67 46.92 47.35
37.91 36.52 36.70 36.38 36.45 31.71 31.85 32.47 31.46 34.03 35.57 38.12 39.22 40.20 40.24 41.06 40.02 39.75 39.90 40.46 41.28 42.55 43.34 43.37 43.91 44.56 45.10
35.76 36.33 35.78 34.69 30.22 30.17 27.94 27.56 28.54 27.78 26.87 27.28 28.20 28.75 31.49 37.89 37.36 36.89 37.01 37.27 38.03 39.15 40.31 41.34 42.03 42.49 43.27
32.00 31.88 29.75 28.62 27.84 26.60 25.75 22.40 22.90 27.09 24.94 24.66 26.12 25.42 26.46 26.78 35.62 35.99 36.32 36.87 36.89 37.20 37.81 38.79 39.62 39.99 40.54
27.62 26.80 26.90 27.56 26.83 25.76 25.52 22.62 24.20 26.17 24.64 22.26 24.77 25.14 26.91 30.47 35.81 35.47 36.18 36.45 37.88 37.71 37.40 37.61 38.16 38.61 39.06
28.85 28.36 28.60 28.48 28.61 27.95 26.56 25.28 25.85 25.84 24.64 19.19 23.72 24.82 25.89 26.80 35.86 35.28 35.18 35.65 35.93 37.32 37.60 37.75 38.29 38.48 38.91
33.07 33.11 33.09 32.86 30.89 26.58 23.56 20.50 20.83 22.38 24.60 23.55 23.74 24.49 25.24 26.50 27.46 35.42 35.79 36.13 35.80 35.64 36.36 37.53 37.82 38.02 34.19
25.81 27.19 27.84 27.55 30.85 25.77 23.45 14.33 17.00 18.08 24.12 21.09 23.56 23.62 19.45 25.61 27.03 27.21 27.31 34.02 35.45 35.42 35.80 36.22 36.33 31.22 29.54
23.38 22.92 23.73 24.67 24.64 25.33 25.74 18.14 13.02 14.41 26.24 20.62 12.76 18.18 16.27 19.16 24.21 25.74 25.76 26.37 26.69 28.01 32.68 34.46 35.38 34.48 26.21
23.00 22.94 22.34 22.58 23.63 23.98 25.63 23.82 23.12 20.94 24.01 19.00 12.27 13.49 9.69 12.53 19.25 24.01 23.92 24.62 23.92 24.71 24.28 29.59 33.01 34.49 35.12
22.80 22.41 23.32 24.05 21.78 20.35 22.15 23.66 21.96 23.87 26.63 16.81 16.03 10.84 13.23 11.63 14.55 19.20 23.35 23.06 24.69 19.96 21.28 21.76 23.10 24.15 23.50
22.67 24.21 24.53 20.43 22.34 21.54 18.27 20.01 17.26 20.82 25.46 23.07 18.22 16.44 12.10 18.66 21.16 22.88 23.11 18.64 19.21 20.49 22.25 24.43 24.82 26.04 25.86
23.55 23.31 23.87 24.15 23.81 20.76 20.54 17.38 15.62 15.33 18.82 22.45 24.76 22.65 21.09 15.63 19.60 21.47 21.26 20.61 21.01 21.44 19.81 20.85 24.07 25.43 27.14
22.76 22.13 22.16 20.51 20.41 19.46 17.31 15.19 13.97 15.98 15.67 17.61 18.39 24.30 24.47 24.14 27.02 23.17 22.57 20.75 20.52 20.84 21.42 16.66 23.60 25.11 26.73
22.01 20.11 17.98 16.10 21.70 16.76 15.99 15.77 14.20 14.01 14.14 13.34 8.93 8.39 8.44 17.04 21.18 29.71 21.50 14.28 16.67 20.98 21.13 20.74 21.71 23.95 25.37

GFSFLT2_sfc_wetblb_072.txt.gz
Wetbulb
43.18 42.60 41.27 41.44 41.81 42.77 42.83 42.65 42.91 44.95 46.17 46.82 46.70 48.03 49.18 49.49 49.55 49.70 50.13 51.10 52.13 52.85 53.42 53.95 54.24 54.00 53.66
41.56 40.42 39.48 38.99 39.04 40.13 41.31 41.76 40.07 41.41 43.45 44.13 44.55 45.34 46.33 46.72 46.70 47.77 47.89 48.28 48.64 49.44 50.32 50.63 50.51 50.61 50.70
37.59 39.14 37.75 37.89 37.88 38.20 38.99 35.46 37.96 39.31 40.32 40.93 41.57 42.54 42.85 43.70 43.67 43.78 43.94 45.17 45.89 46.29 46.81 47.25 47.63 48.08 48.20
37.94 36.79 36.77 36.61 36.19 32.35 34.60 31.41 30.91 32.82 34.40 36.78 38.66 40.25 40.44 40.81 40.44 39.79 39.91 40.60 41.61 42.78 43.70 43.77 44.36 44.81 45.42
36.07 36.24 35.89 34.55 30.89 31.20 28.58 27.75 28.14 27.12 27.16 27.00 27.31 27.06 31.25 36.87 36.18 36.93 37.01 37.40 37.95 38.98 40.13 41.17 41.66 42.24 42.87
34.49 33.63 30.32 29.61 28.31 27.04 26.25 23.07 23.94 27.20 24.99 24.60 25.53 24.71 25.79 26.30 35.54 36.27 36.70 37.83 37.81 37.29 37.45 38.18 39.07 39.71 40.24
30.67 29.41 28.03 28.38 27.34 26.31 25.60 23.78 24.40 26.14 25.19 22.42 24.77 24.81 26.28 29.44 35.69 35.82 36.39 36.41 37.63 37.93 37.31 37.30 37.81 38.23 38.62
29.45 28.93 28.82 28.63 29.00 28.05 26.68 25.53 25.89 25.88 24.82 20.14 23.59 24.55 25.42 26.15 35.34 35.43 35.48 36.06 36.06 36.74 37.83 37.65 38.14 38.23 38.76
34.08 34.76 34.86 34.18 30.88 27.16 24.66 22.29 22.28 23.07 24.79 23.82 23.53 24.21 25.11 26.13 26.83 35.36 35.69 36.22 35.89 35.88 35.92 36.94 37.61 37.76 33.87
26.77 27.47 27.42 28.22 31.71 26.29 25.37 19.99 21.65 20.25 24.54 22.38 23.51 22.96 18.60 24.95 26.45 26.23 26.52 34.09 35.01 35.45 35.75 36.05 36.25 30.10 29.31
23.89 22.92 23.35 24.57 25.24 25.71 26.38 21.98 16.82 17.35 26.54 21.59 12.79 17.73 15.68 18.48 23.65 25.16 24.99 25.41 25.67 27.22 31.90 33.42 35.07 34.18 25.66
22.84 22.30 22.36 23.27 25.14 26.50 26.86 26.16 25.01 22.58 25.17 19.84 11.71 13.35 8.25 11.92 18.43 23.52 23.53 24.08 23.67 24.19 23.39 28.36 31.73 32.75 33.80
22.50 22.14 22.68 23.65 23.76 24.95 25.91 25.38 21.95 23.85 26.08 15.73 15.54 10.08 10.64 10.83 13.17 17.47 22.77 22.62 22.15 18.95 21.14 21.36 21.91 22.93 21.44
22.68 23.90 25.23 24.30 24.80 24.86 21.82 21.41 17.55 21.62 25.45 22.38 15.04 13.76 10.04 15.87 15.37 17.76 21.39 18.29 18.60 18.89 20.69 22.61 23.31 24.61 24.51
23.65 23.84 24.68 25.91 25.55 24.02 21.81 16.96 16.43 16.24 19.25 22.52 24.52 21.14 19.80 15.89 21.42 22.80 21.44 20.55 20.36 19.55 19.33 19.21 22.53 23.15 24.69
24.46 23.93 23.90 24.01 23.34 22.13 18.99 16.22 16.24 16.99 15.58 17.43 17.42 22.20 23.60 22.28 27.22 23.70 23.72 22.94 19.71 19.73 20.62 15.85 20.46 22.80 25.77
24.09 22.68 21.85 21.80 23.89 22.01 20.60 20.57 19.28 18.93 15.84 14.72 8.61 10.22 11.28 15.89 22.70 29.88 23.27 14.36 15.38 18.33 19.85 19.96 19.41 22.65 24.13

GFSFLT2_sfc_wetblb_075.txt.gz
Wetbulb
43.13 43.10 42.08 42.35 42.44 42.89 42.85 42.64 42.56 44.97 45.79 46.43 46.30 46.92 48.54 49.23 49.94 49.99 50.38 51.42 53.06 54.88 55.63 56.07 56.45 56.16 55.88
41.24 40.50 39.59 39.61 39.72 40.43 41.51 40.99 39.43 41.67 43.78 43.96 44.41 45.90 46.95 46.62 46.45 47.20 47.76 48.31 49.18 50.65 51.68 51.80 52.16 52.44 52.91
37.91 39.16 37.94 38.18 38.28 38.30 38.59 35.36 36.21 38.41 40.34 41.04 42.31 42.53 43.75 43.63 43.14 43.54 43.66 44.44 45.54 46.18 46.88 47.73 48.50 48.97 49.24
38.28 37.17 37.00 36.97 37.08 34.04 35.18 32.00 31.01 32.22 34.10 36.06 37.81 39.88 40.98 40.84 39.72 39.20 39.42 40.21 41.60 42.76 43.71 44.32 44.73 45.43 46.09
36.22 36.39 36.00 34.99 33.03 31.37 31.16 28.88 28.67 27.62 27.43 26.92 27.20 27.20 31.13 34.44 34.87 36.99 37.50 37.75 37.97 39.03 40.21 41.37 41.88 42.36 42.81
35.29 35.10 33.52 31.72 29.48 28.71 27.61 24.87 25.24 27.16 25.21 24.79 25.63 25.21 26.29 26.85 35.31 36.48 37.27 38.16 38.49 37.79 37.53 38.24 38.95 39.64 40.13
34.02 30.30 28.98 29.38 27.81 26.22 26.31 25.82 24.55 26.22 25.38 22.59 25.02 25.15 26.58 28.91 35.17 35.97 36.49 36.56 37.52 38.23 37.40 37.32 37.75 38.14 38.33
29.19 28.03 28.61 28.47 28.66 28.53 27.67 25.98 26.26 25.92 24.73 20.41 23.96 24.89 26.11 26.86 34.59 35.64 35.73 36.28 36.13 36.65 38.12 37.76 38.20 38.32 38.99
35.02 35.61 35.17 34.57 31.82 28.09 25.29 23.57 23.27 23.55 25.04 23.86 24.00 24.78 25.69 26.62 27.24 35.78 35.57 36.09 35.93 36.30 36.24 36.82 37.47 37.88 33.86
26.78 28.00 27.05 29.37 33.47 26.55 25.85 19.25 21.59 20.71 24.92 23.00 24.32 23.91 20.99 25.38 26.60 26.12 26.35 34.12 34.51 35.15 35.24 35.70 36.09 29.89 28.91
24.09 23.05 23.85 25.10 25.27 25.49 25.77 21.74 19.21 20.30 26.96 24.23 19.59 21.98 19.19 20.63 23.68 24.86 24.81 25.17 25.38 26.89 30.65 31.92 34.34 33.49 25.42
23.29 22.84 22.86 23.94 25.32 25.90 26.56 26.17 26.02 24.76 27.92 24.38 17.30 16.69 11.21 15.66 18.55 23.28 23.19 23.74 23.70 23.97 23.32 27.81 29.85 30.88 32.26
23.14 23.00 23.63 24.49 25.35 25.61 26.01 26.45 25.67 26.52 27.37 22.04 19.57 11.83 13.51 14.82 15.08 17.87 21.83 22.63 21.86 18.96 21.07 21.18 21.51 22.66 20.76
22.98 23.82 25.16 24.74 25.12 26.21 25.41 25.03 24.09 24.60 27.22 25.09 19.49 16.97 13.81 16.99 16.79 16.30 16.34 15.54 18.64 18.56 20.23 21.14 22.91 23.99 23.62
23.51 23.71 24.58 25.74 25.77 24.99 24.76 22.90 20.26 20.71 23.52 24.55 26.07 22.75 20.90 17.61 20.55 21.26 21.79 20.11 20.28 18.53 19.69 18.91 21.57 22.60 23.60
23.14 23.07 23.41 23.58 22.92 22.89 22.49 20.30 20.69 20.85 20.32 21.14 21.38 21.08 22.99 23.34 26.20 23.05 23.25 23.12 19.98 19.43 20.75 17.11 19.06 21.24 24.23
22.99 21.36 20.92 21.26 24.02 22.96 22.11 22.07 20.70 21.11 20.39 20.04 16.45 16.42 15.17 16.10 23.69 29.64 23.46 15.65 15.42 18.23 19.47 19.29 18.67 22.44 23.22

GFSFLT2_sfc_wetblb_078.txt.gz
Wetbulb
43.44 43.41 42.94 43.29 42.98 43.12 43.34 42.77 42.81 44.90 45.73 46.31 46.30 46.77 48.05 48.64 49.80 50.43 50.89 51.85 53.16 54.18 55.03 56.68 58.31 58.78 58.55
41.37 40.64 40.12 40.57 40.69 41.04 41.68 40.87 39.69 41.62 43.98 44.06 44.77 45.99 46.05 45.61 46.18 46.76 47.49 48.17 49.14 50.69 52.01 52.71 54.25 54.80 55.27
38.43 39.41 38.35 38.71 38.65 38.87 38.69 37.16 35.32 38.31 40.35 42.12 42.91 43.04 44.24 43.73 42.70 43.00 43.52 44.56 45.58 46.39 47.22 48.55 49.36 49.92 50.83
39.01 37.62 37.39 37.49 37.60 35.26 35.56 33.90 31.19 32.19 34.36 35.91 37.47 39.56 41.46 40.76 39.33 38.89 39.36 40.33 42.15 43.34 44.20 44.61 45.43 46.55 47.07
36.61 36.75 36.15 35.29 34.58 34.09 32.96 30.16 28.08 28.26 28.36 27.87 28.19 28.16 31.23 33.12 35.22 37.66 38.32 38.92 38.49 39.42 40.91 42.09 42.64 43.29 43.81
35.94 35.80 35.47 34.30 31.91 31.05 27.11 23.87 24.95 27.57 26.48 26.11 26.40 25.90 26.84 28.87 35.80 36.93 37.76 38.34 38.84 38.03 37.90 38.84 39.62 40.31 40.79
35.10 34.05 32.96 31.69 28.99 26.05 26.41 26.47 25.75 26.93 25.96 24.38 25.61 25.55 27.19 28.86 35.21 36.32 36.76 36.83 37.87 38.32 37.60 37.60 38.12 38.43 38.55
30.54 29.87 29.40 29.84 29.47 28.80 27.98 26.68 26.14 26.20 25.67 21.75 24.24 25.18 26.53 27.11 34.55 36.06 36.09 36.56 36.38 37.21 38.22 38.27 38.47 39.14 39.35
35.95 35.76 35.36 34.57 31.54 28.00 26.51 23.63 23.91 24.35 25.45 24.15 24.10 24.70 25.63 26.89 28.23 36.17 35.88 36.41 36.16 36.89 36.88 37.12 37.66 37.95 34.36
26.83 27.08 28.44 31.31 34.16 27.66 27.71 24.62 23.58 22.63 25.26 24.03 24.75 24.44 22.77 26.28 27.57 27.57 28.09 34.13 34.83 35.26 35.32 35.75 36.02 30.49 29.69
23.84 24.00 24.26 25.79 25.46 26.11 27.06 23.64 19.69 20.54 27.19 24.34 22.05 24.42 23.40 24.01 25.21 26.00 26.11 26.49 26.49 27.48 30.48 32.26 34.17 33.02 26.74
23.34 22.50 22.23 23.36 25.06 26.29 26.62 26.08 26.03 24.70 27.93 24.58 20.58 22.30 20.64 17.88 20.56 23.89 24.20 24.62 24.63 25.41 25.00 28.21 29.44 30.43 31.91
23.07 23.33 24.40 24.52 25.10 25.15 25.89 26.40 26.23 27.42 28.18 26.05 25.02 17.57 16.30 16.30 18.56 19.65 23.17 23.66 24.00 21.52 23.06 23.03 22.82 23.46 21.60
22.22 23.22 24.29 23.06 24.64 25.79 24.46 24.53 23.04 24.55 28.22 25.03 21.47 19.77 15.92 17.78 17.95 16.81 19.29 18.57 21.19 21.05 22.47 22.18 23.31 24.30 23.79
22.63 22.62 24.15 25.38 25.53 25.20 24.47 22.20 18.71 19.64 22.91 25.15 26.27 23.91 22.89 20.83 19.86 21.41 21.68 20.73 19.94 18.30 20.30 19.08 22.48 23.04 23.85
22.87 22.43 22.99 23.49 23.40 23.03 21.79 20.81 19.45 19.43 20.58 22.51 22.99 21.27 22.94 25.03 26.46 23.40 23.83 22.46 19.10 19.49 20.75 18.64 20.26 21.72 24.04
22.71 21.52 21.22 20.37 23.38 21.02 19.31 18.94 18.35 18.33 18.03 18.10 15.51 15.66 13.92 16.80 24.42 29.26 21.97 20.65 18.40 20.15 19.86 19.76 18.62 24.16 24.04

GFSFLT2_sfc_wetblb_081.txt.gz
Wetbulb
45.53 45.30 45.04 44.85 44.46 44.29 44.31 43.67 43.70 45.34 45.97 46.38 46.52 47.13 47.92 48.78 49.57 50.05 50.59 52.06 53.71 54.88 56.28 57.62 59.50 60.10 60.18
43.72 42.11 41.95 42.39 42.23 42.19 42.13 41.22 40.61 41.69 44.40 44.41 45.42 45.80 45.65 45.52 46.32 46.86 47.40 48.22 49.36 51.04 52.13 53.49 55.62 56.35 57.51
42.30 41.97 41.06 40.52 40.00 40.07 39.37 38.22 36.40 39.23 41.08 43.17 43.42 43.93 44.40 43.14 42.33 42.77 43.73 45.09 46.09 46.79 48.03 49.43 50.62 52.02 53.33
41.46 39.87 39.31 39.00 39.19 36.98 36.70 36.38 34.53 35.81 36.45 37.09 38.03 40.30 42.18 40.06 39.36 39.38 39.85 40.84 42.97 44.39 44.97 45.59 47.06 48.12 48.96
39.12 38.71 37.58 36.41 36.21 36.29 36.06 33.76 32.73 35.28 35.41 35.15 34.97 34.71 37.26 35.36 36.71 38.31 39.40 39.71 39.06 40.57 42.26 43.14 43.95 44.98 46.07
38.58 37.59 37.63 37.16 34.85 34.32 32.82 32.14 35.06 33.52 32.98 33.02 32.96 32.81 33.03 35.29 36.53 37.40 37.91 38.95 39.12 38.26 38.73 39.93 40.83 41.67 42.43
37.33 37.13 35.71 35.41 33.59 31.11 32.29 33.27 30.87 31.01 31.69 30.63 31.02 31.38 32.45 32.85 35.92 36.77 37.23 37.28 38.57 38.28 37.69 38.03 38.69 39.06 39.41
36.48 35.52 35.37 35.31 35.51 35.06 34.16 31.82 30.51 30.38 30.43 28.83 30.18 30.51 32.20 33.35 34.66 36.53 36.55 36.90 36.91 38.53 38.40 38.64 38.79 39.27 39.41
35.51 35.43 35.40 34.93 33.99 32.96 30.97 29.18 27.46 28.75 29.59 29.27 28.94 29.54 30.72 31.83 33.63 36.58 36.28 36.80 36.67 37.47 37.72 38.05 38.94 37.78 37.84
31.98 31.12 32.83 35.69 34.02 32.42 31.90 30.13 28.99 27.56 28.97 28.90 28.25 28.63 28.27 30.43 31.55 32.16 32.49 34.54 36.03 35.69 35.95 36.26 36.36 36.03 35.74
28.94 28.52 29.27 30.52 30.32 29.76 31.00 30.82 28.92 28.64 29.60 29.85 28.69 28.10 28.46 28.50 29.03 29.85 30.67 31.16 31.05 31.51 31.21 32.69 34.43 34.64 34.59
27.61 27.16 26.71 27.61 28.81 29.62 29.32 29.61 29.80 29.83 32.00 29.93 28.95 28.48 27.44 26.01 26.31 28.11 29.55 29.99 29.67 30.06 30.41 30.74 30.00 30.61 32.10
26.82 26.58 27.38 28.50 29.05 28.60 28.88 29.01 29.23 29.72 30.02 29.29 29.79 26.85 27.82 27.27 27.11 27.31 28.03 28.47 29.13 29.06 28.80 28.97 29.38 29.56 29.30
27.00 27.30 26.95 27.02 27.21 28.61 28.08 28.19 28.22 28.15 29.55 29.01 27.42 26.42 26.66 26.85 26.66 27.00 27.40 27.29 28.19 28.07 28.43 28.63 29.11 29.31 29.04
27.56 26.13 25.90 26.64 26.68 28.19 28.39 27.70 26.36 26.34 26.63 27.72 28.25 27.63 27.78 27.08 25.47 26.16 26.17 26.03 27.61 27.80 26.44 26.58 27.87 28.72 28.75
28.41 27.49 26.54 26.67 27.02 27.13 27.15 26.88 25.96 25.69 26.19 27.31 27.42 26.68 26.54 27.67 28.45 26.29 26.78 26.96 28.21 27.72 26.75 24.78 26.19 29.08 29.05
28.61 27.55 27.02 26.45 27.29 26.33 26.39 25.92 25.01 25.37 25.84 26.18 25.55 24.76 22.69 21.41 27.15 29.78 26.56 27.39 27.16 26.83 27.10 26.61 26.47 28.20 29.27

GFSFLT2_sfc_wetblb_084.txt.gz
Wetbulb
48.38 47.84 48.56 47.61 45.87 45.70 45.63 44.74 44.59 45.87 46.15 46.46 46.49 47.72 47.85 48.22 48.88 49.42 50.37 51.42 52.97 53.92 55.19 57.17 58.86 59.79 60.53
46.20 44.82 44.76 44.71 43.92 43.06 42.66 41.52 41.10 42.21 44.73 44.53 45.78 46.04 45.69 45.28 45.32 46.45 47.36 48.02 48.69 50.42 51.62 53.11 55.06 57.60 59.48
46.59 45.80 44.05 42.82 41.93 41.50 40.25 38.76 37.16 39.92 42.35 43.56 43.95 44.69 44.51 42.72 41.59 42.04 43.39 45.07 46.19 46.71 47.87 49.39 50.93 53.18 55.44
45.37 43.05 42.04 41.21 41.02 38.99 37.84 37.78 35.41 36.42 37.70 39.16 39.67 41.38 42.32 39.98 39.18 39.45 40.20 40.75 43.05 44.79 45.53 46.16 47.38 49.00 50.93
41.64 40.65 39.76 38.36 37.87 38.25 37.47 35.84 34.59 35.81 37.04 39.69 39.34 39.27 41.01 37.27 37.64 38.42 39.41 39.96 39.74 40.99 43.09 44.03 44.54 45.86 46.94
40.47 39.56 39.82 39.24 37.80 36.19 35.22 33.93 34.44 36.73 38.38 38.50 36.67 36.64 36.60 37.82 36.79 37.44 37.74 39.06 39.16 38.28 39.43 40.91 41.74 42.57 43.64
39.32 39.42 39.10 38.82 37.00 34.69 34.03 34.85 36.35 34.93 35.90 34.43 33.65 33.33 35.10 34.61 36.30 37.01 37.34 37.47 38.67 38.16 37.81 38.58 39.22 39.76 40.32
40.63 40.48 39.15 38.02 37.84 37.50 37.37 38.03 35.80 34.40 33.83 31.58 32.02 32.67 33.97 35.37 34.82 36.88 36.86 36.96 37.20 38.75 38.71 38.78 38.98 39.25 39.65
36.00 36.33 36.54 36.86 38.53 37.59 35.48 34.42 32.92 32.23 32.42 31.12 30.47 31.66 32.71 33.92 36.48 37.05 36.49 36.79 37.28 37.80 38.46 39.08 39.41 38.48 38.61
35.73 36.17 37.09 36.34 34.53 36.32 36.54 34.80 33.23 30.93 32.10 30.47 30.40 31.25 29.85 33.26 34.31 35.40 36.00 35.72 37.30 36.46 36.63 36.65 36.47 37.11 36.96
32.92 32.66 34.09 35.46 34.62 33.46 34.37 34.87 33.15 32.15 32.54 32.94 31.94 31.01 31.67 31.11 32.03 32.91 33.04 32.98 33.49 33.58 32.48 33.07 34.46 35.21 35.69
31.46 31.11 30.93 31.34 31.75 32.36 31.71 32.36 32.48 32.49 33.44 32.98 32.18 31.98 31.29 29.95 29.49 30.15 31.20 32.76 32.86 32.66 32.98 32.60 32.07 32.13 33.28
30.44 30.90 31.47 32.20 32.17 31.22 31.31 31.16 31.24 32.02 32.05 31.98 32.88 30.94 31.44 30.52 30.25 30.03 30.14 30.98 31.84 32.01 32.02 31.82 32.13 32.60 31.39
31.22 31.65 30.81 29.91 29.92 31.24 30.41 30.52 30.51 30.54 31.18 31.41 31.09 30.29 30.12 29.70 29.91 30.04 30.71 29.91 31.11 30.60 30.86 31.09 31.25 31.33 31.47
30.69 29.17 28.49 28.98 29.05 30.63 30.49 30.41 29.59 29.30 29.11 29.95 30.23 30.44 30.59 29.65 28.20 29.12 29.36 29.67 30.93 31.14 29.53 29.06 30.75 31.44 31.45
31.77 31.03 29.64 28.72 28.95 29.46 30.30 29.65 29.15 29.12 28.91 29.90 29.55 29.16 29.23 30.24 30.86 28.99 29.85 29.67 31.32 30.60 29.39 28.09 29.25 32.35 32.18
32.61 32.04 31.29 30.39 29.75 28.84 28.73 28.94 28.61 28.90 29.16 30.06 29.17 27.98 26.22 25.16 29.73 31.01 29.31 30.10 29.96 29.15 29.97 29.67 29.32 31.29 32.19

GFSFLT2_sfc_wetblb_087.txt.gz
Wetbulb
50.13 49.24 49.15 48.94 46.73 46.62 46.26 45.24 45.25 46.10 46.33 46.55 46.68 47.72 47.35 47.40 48.02 48.65 48.91 50.08 51.61 52.86 54.12 55.12 56.38 59.15 60.04
48.04 46.05 46.40 46.22 44.87 43.70 42.97 42.00 41.45 43.34 45.00 44.99 45.85 46.28 45.72 45.10 44.87 44.81 46.20 47.42 48.10 49.26 50.96 52.16 53.51 55.92 59.50
45.53 46.23 45.15 43.79 42.54 42.31 41.16 39.79 38.42 41.27 43.18 44.01 44.35 45.31 44.67 42.72 41.82 41.44 42.42 44.28 45.87 46.81 47.68 48.86 50.38 52.77 55.04
45.52 43.74 43.45 42.61 42.22 39.66 38.45 39.02 36.72 37.21 38.83 39.40 41.04 42.24 42.26 40.39 39.64 39.71 40.77 41.33 42.39 44.66 45.79 46.29 47.38 48.92 51.19
43.11 41.92 40.81 38.95 38.46 39.33 37.76 36.48 35.98 35.97 35.55 37.16 37.33 39.13 39.28 37.66 37.70 38.71 39.33 40.31 40.49 41.04 43.34 44.43 44.98 46.35 48.00
40.73 39.84 40.06 39.70 38.63 36.56 35.67 33.62 33.64 36.03 34.72 35.64 34.46 34.58 34.52 35.24 37.23 37.65 37.92 39.25 39.76 38.98 40.13 41.66 42.70 43.59 44.88
39.90 39.61 38.82 39.28 37.33 35.25 34.63 34.54 34.51 32.73 34.05 33.39 32.00 30.88 31.95 33.84 36.79 37.30 37.44 37.84 39.04 38.57 38.31 39.42 40.23 40.93 41.63
40.61 40.90 40.41 39.22 38.17 37.20 35.72 35.21 34.10 33.06 32.21 29.06 29.42 29.11 30.89 32.07 35.42 37.28 37.03 37.16 37.75 38.90 39.13 39.22 39.43 39.79 40.44
36.89 38.01 38.23 39.95 39.67 36.77 35.33 33.23 31.28 29.95 30.20 28.42 27.79 28.15 29.05 30.07 33.44 37.53 36.77 36.99 37.50 38.88 39.38 39.90 39.76 39.64 38.27
34.82 35.55 36.68 35.99 36.27 34.16 34.50 31.85 31.58 28.59 29.62 28.00 27.18 27.66 25.62 29.56 31.54 33.12 33.83 37.08 38.09 37.34 37.51 37.34 36.90 34.43 33.54
31.89 31.96 32.75 33.13 31.59 30.93 32.23 32.71 30.48 29.65 30.20 30.30 28.22 27.46 28.23 27.63 28.63 30.66 30.64 31.03 31.21 32.72 34.51 34.18 34.81 34.93 33.40
29.29 28.42 28.42 29.99 29.52 30.04 30.03 30.29 30.37 31.07 30.27 30.26 28.13 27.62 27.72 26.71 26.56 27.72 28.80 29.90 30.13 30.20 30.96 32.80 33.45 33.58 34.19
28.47 28.61 29.76 30.66 29.96 28.64 28.69 29.35 29.06 29.98 30.72 27.44 28.32 25.37 26.27 25.50 25.78 26.11 26.82 28.16 29.06 28.01 28.37 28.21 28.36 29.48 28.47
28.84 29.50 29.74 28.40 28.22 29.10 27.59 27.62 27.25 26.76 29.69 27.85 25.68 24.83 24.24 25.21 24.95 24.52 26.19 24.19 26.71 27.41 27.82 28.18 28.91 28.83 28.46
28.38 27.62 27.35 27.77 28.08 28.98 28.40 27.39 25.77 26.24 25.93 27.17 28.19 27.61 26.54 23.32 22.66 25.19 24.85 24.79 26.07 26.30 25.97 24.76 26.99 28.81 29.07
29.32 28.06 26.41 26.78 27.56 27.80 28.11 26.34 25.11 25.59 25.62 26.40 25.36 24.48 25.15 26.83 29.85 24.52 24.91 24.67 25.90 26.25 25.71 21.37 23.77 28.19 29.19
30.64 30.01 28.10 27.56 28.09 27.10 27.09 26.74 25.78 25.61 25.28 26.00 24.31 22.05 19.85 19.80 25.89 31.67 22.62 24.39 24.57 24.30 24.86 24.61 22.34 25.77 29.40

GFSFLT2_sfc_wetblb_090.txt.gz
Wetbulb
47.04 46.14 46.61 46.18 46.01 45.88 46.22 45.32 45.62 46.67 46.86 46.94 46.93 47.77 47.51 47.54 47.59 47.87 48.29 48.74 49.73 51.15 52.43 53.47 54.94 55.63 59.32
46.66 44.91 44.79 44.63 44.23 43.48 43.24 42.68 42.25 43.84 45.54 45.64 45.73 46.68 46.06 45.04 44.63 44.13 44.42 46.17 47.51 48.56 49.71 51.13 52.69 54.37 57.18
42.98 45.30 42.41 42.94 42.14 42.21 41.34 39.97 39.06 42.50 44.08 44.54 44.85 45.39 45.58 43.00 42.01 41.65 41.86 42.70 44.43 46.35 47.22 48.34 49.89 51.60 54.08
44.71 42.82 42.31 42.10 41.78 39.29 38.49 39.19 37.73 37.85 40.09 40.45 42.82 43.03 43.59 41.12 39.96 39.94 40.59 41.23 41.89 43.64 45.48 46.10 47.37 49.31 50.79
42.17 41.05 40.10 38.27 37.99 39.06 37.88 36.89 36.91 36.50 35.17 36.63 36.97 37.88 40.09 39.42 37.80 39.06 39.11 40.24 40.72 40.80 43.10 44.42 45.24 47.01 47.87
39.97 39.89 39.91 39.58 38.91 36.85 35.81 33.73 34.15 35.78 33.91 34.28 35.46 34.57 32.95 32.26 37.77 37.83 38.11 38.98 40.05 39.49 40.22 41.78 43.00 43.94 45.06
37.93 37.83 38.14 38.25 37.38 35.11 34.61 34.14 34.61 33.43 33.72 32.81 32.16 28.67 28.60 33.21 37.16 37.44 37.49 37.84 39.29 39.02 38.82 39.90 40.81 41.55 42.22
39.42 38.36 38.82 38.91 38.13 37.02 35.51 34.63 32.57 31.87 32.58 30.03 26.16 26.34 27.87 28.16 36.28 37.34 37.23 37.34 38.33 39.11 39.28 39.54 40.06 41.40 41.92
38.18 40.08 41.49 41.14 39.46 36.40 33.82 32.95 31.23 28.52 27.77 26.45 25.00 25.47 26.20 26.79 29.58 37.45 37.03 37.17 37.87 39.19 39.66 39.75 39.69 39.30 37.67
31.79 34.40 36.52 36.54 40.23 32.47 31.02 32.27 29.47 22.11 26.97 24.53 24.57 25.00 21.22 26.47 29.58 30.34 32.02 37.43 38.55 38.03 38.08 37.82 37.64 33.76 32.87
30.18 29.91 30.00 29.45 28.26 28.95 30.43 27.72 22.73 21.45 28.04 27.54 18.91 22.05 23.63 22.21 26.46 28.63 29.00 29.97 29.93 31.15 35.28 34.96 35.14 34.71 31.95
27.12 26.74 26.93 25.83 24.54 25.88 28.29 27.26 27.54 26.14 27.48 27.40 22.21 20.03 17.29 18.14 22.06 25.78 26.54 27.85 27.88 27.74 27.59 32.52 34.09 34.41 34.80
26.25 24.39 24.33 25.50 25.45 23.98 24.94 26.75 25.78 27.40 28.48 26.16 18.64 17.14 18.23 17.74 20.54 21.66 23.30 26.34 25.60 24.29 25.06 25.90 26.37 27.12 26.08
26.26 26.63 26.40 23.79 23.37 23.43 21.47 22.31 20.18 22.46 27.83 23.02 18.91 18.46 17.03 18.96 18.80 19.23 20.60 20.27 22.32 23.02 24.19 24.63 27.22 27.61 26.90
26.63 26.14 26.52 26.03 25.90 24.30 23.79 22.03 20.82 22.95 24.76 24.55 26.48 24.36 21.21 19.42 17.87 21.59 22.40 22.02 21.74 21.80 22.91 21.21 24.33 27.21 27.98
27.07 26.08 24.70 24.39 24.75 23.96 22.34 20.62 22.31 23.15 23.34 23.33 20.80 19.45 21.47 24.65 27.96 21.52 21.17 21.29 21.32 23.95 23.48 16.93 20.34 25.35 28.12
27.30 25.38 23.81 23.41 26.95 25.90 22.65 22.68 23.86 23.07 22.51 21.55 18.51 13.65 13.31 16.06 23.98 31.10 18.57 19.42 20.75 22.05 21.85 21.50 17.80 22.88 28.33

GFSFLT2_sfc_wetblb_093.txt.gz
Wetbulb
46.38 45.97 45.32 45.03 44.90 46.69 45.72 44.46 46.51 47.51 47.42 47.46 47.25 47.78 47.53 47.19 46.72 46.68 47.21 47.86 48.51 49.35 50.63 51.76 52.66 54.43 55.56
44.47 43.48 44.54 46.01 45.08 44.41 44.03 43.52 43.36 44.21 46.43 46.83 46.28 47.44 46.62 45.07 44.31 43.98 43.58 43.85 45.75 47.25 48.49 49.78 51.11 52.84 54.41
42.70 43.68 43.40 43.12 42.53 42.68 41.80 40.71 40.04 43.21 45.18 45.51 45.63 46.20 46.58 43.64 42.41 41.87 41.84 42.49 43.23 44.69 46.42 47.30 48.96 50.71 52.17
43.70 42.99 42.49 42.06 41.84 40.00 39.19 39.84 38.82 38.32 41.67 41.53 44.24 43.75 45.60 42.30 40.33 39.71 40.14 40.91 41.51 42.38 44.53 45.42 46.68 48.35 49.80
40.78 41.56 40.52 39.05 39.15 39.35 38.69 37.25 37.91 37.31 35.53 36.82 38.30 38.47 41.19 40.71 38.36 39.13 39.06 39.84 40.77 40.58 42.02 43.88 44.83 46.17 47.42
40.43 40.52 40.27 39.52 37.13 36.44 36.46 34.62 34.84 36.40 34.33 34.46 35.96 34.79 36.66 34.65 38.27 38.05 38.21 38.67 39.89 39.67 39.70 41.65 42.86 43.92 44.87
40.61 41.05 39.53 38.43 38.29 35.68 35.33 34.59 35.20 34.14 34.11 33.05 32.12 31.94 31.21 33.84 37.79 37.61 37.62 37.74 39.13 39.42 39.16 40.17 40.97 41.83 42.58
40.04 39.41 38.45 38.41 37.50 38.04 36.67 34.86 32.05 32.30 33.36 31.42 29.22 27.09 27.63 27.59 36.58 36.99 37.26 37.38 38.70 39.48 40.23 40.27 41.81 41.69 42.21
40.34 41.58 42.80 42.61 40.24 36.51 33.06 33.07 31.22 30.90 29.52 29.27 24.77 25.19 25.75 26.21 28.30 36.77 37.40 37.22 38.22 38.98 39.02 39.05 38.98 38.51 36.63
33.46 36.93 39.82 39.69 41.75 34.64 32.90 31.36 31.54 27.13 26.97 24.97 24.28 24.80 20.93 25.59 28.68 29.48 30.61 37.15 38.81 38.44 38.20 37.64 37.49 31.76 31.31
30.18 30.12 30.36 30.78 29.93 30.43 31.33 28.42 28.70 21.37 27.98 25.08 18.09 21.17 20.34 21.28 25.97 28.14 28.59 29.80 29.92 31.12 35.25 35.26 35.65 34.26 30.35
29.09 28.81 28.07 27.04 25.47 26.89 29.09 28.02 27.42 27.16 28.75 24.07 18.53 19.55 15.66 16.19 21.65 25.44 25.92 26.61 26.79 26.82 26.65 32.17 34.36 34.74 34.97
28.26 27.85 26.49 27.08 25.77 25.63 25.70 26.96 26.21 27.53 28.34 28.38 19.76 16.79 16.28 15.24 19.13 20.68 23.12 25.60 24.47 23.18 24.05 24.83 25.08 25.06 24.64
28.58 26.89 26.45 25.89 24.39 24.45 22.93 22.12 19.93 25.27 27.58 27.00 22.79 18.69 15.58 17.75 18.12 18.28 19.14 19.01 21.35 21.81 23.49 23.85 26.75 27.29 26.26
26.49 26.83 26.73 27.18 26.41 24.54 24.20 20.61 17.64 22.35 24.13 24.34 26.81 25.35 21.92 21.36 18.44 20.12 21.79 21.47 20.30 20.87 22.19 20.46 23.69 26.16 27.12
27.07 27.14 26.95 26.42 26.00 24.53 22.42 19.32 18.79 20.40 20.98 21.58 22.33 21.70 24.38 25.78 28.01 21.39 20.90 21.06 20.37 23.08 22.71 15.77 19.38 24.01 27.19
29.30 28.12 26.93 26.06 27.32 25.58 24.26 22.98 19.70 19.53 20.38 21.40 19.14 18.52 19.41 19.86 25.83 30.87 19.81 18.77 20.04 21.59 21.25 20.70 16.49 22.05 27.59

GFSFLT2_sfc_wetblb_096.txt.gz
Wetbulb
46.66 45.69 46.19 46.03 45.96 45.80 45.81 44.90 45.57 48.48 48.65 48.35 47.80 47.75 47.96 47.38 46.56 46.26 46.32 47.04 47.75 48.54 49.92 50.50 51.10 52.45 54.11
45.12 44.94 45.16 44.65 44.38 44.87 44.99 44.29 42.44 45.54 47.20 47.57 47.50 47.31 47.45 45.89 44.51 43.79 43.62 43.84 44.30 45.54 47.31 48.44 49.65 51.02 52.70
43.53 43.79 43.58 43.92 43.10 43.27 42.49 41.14 40.72 43.30 46.07 46.61 46.42 47.28 47.18 45.34 43.04 42.02 41.53 41.67 42.76 43.46 44.74 46.17 47.38 49.23 50.69
43.46 42.58 41.63 42.31 42.23 40.42 39.82 40.34 40.00 39.66 42.66 43.06 43.40 45.36 46.00 44.69 41.46 39.81 39.85 40.28 41.33 41.79 42.54 44.32 45.35 47.00 48.79
40.79 41.16 40.45 39.62 40.04 39.77 39.65 38.82 39.13 39.17 35.54 35.98 38.59 38.92 40.31 42.87 39.38 39.51 39.17 39.32 40.23 40.62 40.72 42.91 43.98 45.12 46.62
40.34 40.93 41.24 38.86 38.15 38.13 37.03 35.20 35.24 35.22 33.24 32.98 35.01 35.09 37.11 37.77 38.98 39.06 38.42 38.53 39.23 39.81 39.66 41.03 42.19 43.21 44.54
43.30 41.04 38.74 38.54 38.01 35.61 33.37 32.71 34.88 33.90 33.41 33.54 33.00 32.96 32.97 34.32 38.76 38.32 38.04 37.60 38.44 39.44 39.21 39.89 41.37 43.08 43.36
44.44 41.60 40.31 40.48 40.24 37.29 36.14 34.61 32.26 33.62 34.38 31.74 27.77 30.31 30.05 29.29 35.38 37.39 37.81 37.39 38.34 39.50 40.25 41.08 40.81 41.18 42.19
42.72 43.09 43.40 43.11 40.04 36.23 32.66 34.35 31.64 30.74 30.62 30.86 26.43 25.72 26.14 26.43 28.36 36.63 38.07 37.55 38.13 38.77 38.37 38.41 38.52 37.81 35.55
36.24 39.25 41.74 41.48 42.31 36.91 34.65 34.08 31.84 30.43 29.74 28.04 24.79 25.67 22.77 25.83 28.06 29.22 30.62 36.86 38.77 38.77 38.14 37.61 36.94 30.41 29.82
31.71 32.08 32.64 33.95 34.93 33.38 33.81 32.12 27.76 26.46 29.04 26.31 21.39 23.05 21.32 22.05 26.10 27.97 28.46 29.59 29.82 31.07 35.19 35.47 36.19 33.59 28.44
30.42 30.37 30.51 29.89 28.49 29.55 31.06 29.34 28.90 30.75 30.04 26.03 21.31 23.00 18.89 16.48 21.64 25.24 25.55 26.11 26.46 26.77 26.11 31.52 34.51 34.79 35.12
28.94 29.32 28.88 28.46 27.19 26.18 27.23 27.87 28.00 28.58 28.90 24.24 22.53 17.59 18.53 15.66 19.16 20.13 23.32 25.35 24.06 22.47 23.51 24.44 24.89 24.84 24.12
29.55 28.26 27.20 25.66 25.33 25.54 24.23 24.93 24.36 26.34 27.78 28.48 20.50 21.78 15.79 15.74 16.29 16.71 18.62 18.80 20.81 21.27 23.18 23.68 26.61 27.13 26.18
29.11 26.85 27.97 27.20 26.29 23.73 24.64 22.67 19.66 22.89 25.40 26.13 26.05 24.42 20.62 19.66 16.74 20.76 21.56 21.00 20.01 20.57 21.97 20.09 23.47 25.71 26.56
30.21 28.82 27.31 27.32 26.34 23.21 22.43 22.08 18.99 21.34 20.75 23.99 23.44 20.08 20.74 23.09 26.60 21.25 20.53 22.11 20.87 23.04 22.33 15.89 18.83 23.14 26.31
30.05 29.21 28.15 26.54 27.25 25.24 24.35 23.25 21.26 21.79 19.49 21.16 19.44 15.13 13.59 15.23 23.16 30.34 21.17 20.62 20.87 21.25 21.18 20.49 16.43 21.69 27.17

GFSFLT2_sfc_wetblb_099.txt.gz
Wetbulb
47.22 47.08 47.19 48.09 47.13 46.63 46.83 46.07 47.37 50.71 50.27 49.72 49.03 48.43 48.61 48.06 47.15 46.34 45.91 46.03 46.57 47.46 48.45 49.42 50.16 50.81 51.50
45.21 45.28 45.86 46.24 45.76 44.56 44.82 44.87 43.96 47.51 48.17 48.14 48.15 47.83 48.25 47.09 45.57 44.22 43.69 43.71 44.13 44.84 45.80 47.53 48.56 49.68 50.84
43.60 44.65 44.14 45.73 44.09 44.04 42.81 41.23 41.96 44.17 46.56 47.78 47.84 47.22 48.04 47.02 44.41 42.69 41.56 41.51 41.97 42.74 43.32 45.17 46.60 47.84 49.35
44.18 43.22 42.60 42.98 43.76 41.62 40.50 40.71 39.60 39.91 43.51 43.99 45.52 45.64 47.01 47.50 44.06 40.90 40.09 40.07 40.91 41.69 41.46 43.22 44.54 46.07 47.77
42.60 41.60 40.63 40.78 42.02 40.76 40.94 38.75 38.62 40.07 38.43 39.11 39.78 39.30 39.45 45.90 41.45 40.43 39.64 39.36 39.59 40.44 40.47 41.46 43.14 44.29 45.73
42.40 43.39 41.33 40.58 40.85 39.79 37.81 36.29 35.85 39.07 37.02 35.59 35.45 34.74 36.93 39.00 40.91 40.36 39.14 38.60 38.69 39.73 39.72 40.48 41.66 42.97 43.84
44.52 43.59 41.57 40.78 40.00 36.12 35.38 34.83 35.83 34.55 35.26 32.68 33.15 32.96 34.93 37.05 41.19 40.20 38.85 37.94 38.10 39.19 39.32 39.87 42.25 42.66 44.15
46.61 44.40 44.43 42.94 42.57 39.81 38.09 34.35 33.10 33.46 34.29 31.33 29.17 30.46 29.24 30.13 37.98 38.89 38.47 37.84 38.17 39.63 40.20 39.84 39.87 40.82 41.56
45.92 45.52 45.36 44.97 42.26 38.61 35.13 35.99 32.45 31.21 31.89 32.55 26.72 26.61 26.93 27.13 28.65 37.46 38.19 38.10 38.35 39.37 38.33 37.97 38.13 37.13 34.48
40.40 42.45 43.72 43.28 43.14 40.86 37.45 36.51 32.37 31.47 31.60 30.32 25.32 26.14 23.78 26.09 27.38 29.31 31.16 37.92 38.50 39.42 37.99 37.56 36.43 29.82 29.20
36.92 34.92 37.17 37.96 38.13 34.87 36.75 37.12 32.63 32.54 30.47 27.55 23.66 24.36 23.22 23.04 26.43 28.75 29.28 30.54 31.43 34.45 36.56 35.70 36.75 32.59 27.60
33.44 33.51 34.26 34.80 34.54 31.74 31.99 30.56 32.09 32.86 31.85 27.54 23.77 23.69 19.96 17.99 22.48 25.96 25.84 26.25 27.83 27.68 26.26 32.05 35.36 35.36 35.18
32.75 32.60 32.33 30.54 29.61 28.91 28.32 28.75 28.49 29.21 29.66 26.29 24.00 18.89 20.61 17.39 19.64 20.27 24.29 25.80 24.35 22.76 22.91 24.30 24.85 24.64 24.10
32.57 30.69 29.16 26.39 25.95 26.35 27.47 25.57 24.95 26.13 28.88 25.66 19.35 21.86 15.78 16.09 18.54 18.22 18.91 18.82 20.98 21.03 23.18 23.99 26.56 27.01 26.28
30.27 28.81 28.55 27.84 27.58 25.68 24.96 23.48 21.73 25.88 25.48 25.99 25.32 24.27 20.45 20.93 18.51 20.41 21.26 20.23 20.07 20.66 22.75 21.46 23.95 25.93 26.38
31.34 30.11 29.11 28.15 27.14 25.44 23.72 22.78 22.39 22.37 24.01 25.42 24.89 20.51 22.03 24.16 26.34 22.56 19.77 22.18 19.89 22.60 22.76 18.55 20.43 23.65 25.99
31.31 30.18 29.62 29.16 28.60 26.11 25.39 24.79 21.72 21.43 18.15 21.41 17.98 17.88 15.34 16.97 22.93 29.25 20.45 19.52 20.83 21.27 22.16 23.18 20.38 22.71 27.31

GFSFLT2_sfc_wetblb_102.txt.gz
Wetbulb
47.69 47.96 48.52 49.44 48.55 48.46 49.37 48.82 50.82 52.93 51.99 51.06 50.54 50.25 50.03 49.76 49.02 48.12 46.89 46.23 46.24 46.71 47.51 48.35 49.49 50.12 50.73
45.24 45.78 46.76 49.02 47.96 47.20 46.69 46.60 46.64 50.60 50.84 50.33 49.81 49.48 49.29 48.54 47.24 46.23 45.06 44.32 43.98 44.36 45.01 46.15 47.79 48.85 49.96
44.19 45.24 44.70 46.80 45.77 45.51 44.94 43.58 43.90 47.30 49.45 49.36 49.26 48.82 48.91 48.01 46.31 44.94 43.50 42.59 42.14 42.13 42.45 43.52 45.52 46.96 48.43
44.56 44.61 43.38 44.99 45.63 43.48 41.59 41.65 40.43 41.52 45.15 46.24 48.12 48.33 48.59 48.44 46.16 43.57 41.76 41.05 41.07 41.42 41.47 41.39 43.37 44.98 46.60
43.74 42.07 42.58 42.53 43.36 43.26 42.94 41.31 41.16 39.03 38.26 40.23 42.20 42.49 44.19 46.23 44.55 42.19 41.39 40.62 40.14 40.19 40.47 40.51 42.12 43.39 44.86
46.68 44.82 43.72 44.56 44.42 42.31 38.77 37.44 36.90 40.60 38.68 37.39 39.63 38.46 39.45 40.16 42.76 42.24 41.03 39.99 39.32 39.59 39.57 39.93 41.23 43.18 44.06
48.69 47.70 44.92 44.62 43.62 40.89 37.99 37.24 37.27 35.56 36.80 35.70 35.36 35.77 35.28 38.32 43.13 42.41 40.85 39.76 38.80 39.49 39.33 39.92 41.74 41.64 42.20
50.27 49.64 48.28 45.40 43.91 43.87 41.83 38.49 33.88 35.25 35.71 34.27 31.03 32.34 31.24 32.39 42.11 42.24 40.45 39.36 38.76 39.83 40.54 39.55 39.25 40.05 40.69
47.63 47.20 46.44 46.27 45.25 40.79 37.54 37.37 33.12 32.95 34.09 33.26 28.69 28.33 28.70 28.25 30.19 40.08 39.64 39.27 39.08 40.42 39.37 38.27 38.21 37.07 34.85
42.65 45.14 45.88 45.49 44.40 44.02 39.29 38.04 32.51 31.71 32.59 31.97 27.33 27.70 26.33 26.69 27.79 29.44 32.35 39.01 39.04 39.69 38.53 38.30 36.77 30.41 30.15
38.15 38.83 39.41 41.76 41.50 39.43 40.64 40.56 33.59 32.50 32.63 30.42 27.66 26.61 25.50 24.41 26.96 29.01 30.60 32.10 32.42 36.22 38.45 36.89 36.97 32.52 28.50
35.40 36.04 37.09 37.25 35.56 34.67 34.09 32.68 32.64 34.02 33.66 28.61 24.72 24.61 22.14 20.94 23.69 26.99 27.07 27.95 28.82 29.10 27.44 32.60 36.38 36.28 35.07
34.97 35.14 34.47 35.22 32.96 31.01 30.49 30.73 30.44 31.91 32.35 29.45 26.17 21.77 23.48 23.51 22.73 22.38 24.84 26.22 24.47 24.02 23.40 24.87 25.62 24.96 25.39
35.56 33.20 31.70 32.24 31.73 30.73 29.34 29.79 28.91 27.28 28.52 26.14 23.52 23.21 16.72 17.38 18.96 19.96 18.68 20.52 21.75 21.28 24.20 24.32 26.78 27.36 26.48
31.92 30.83 31.53 31.24 30.67 29.68 30.33 29.05 28.39 25.97 25.63 26.47 25.01 23.77 21.28 20.11 16.99 19.73 20.50 19.29 20.24 21.16 23.17 21.09 24.30 26.16 26.78
32.40 32.00 31.26 30.65 29.24 27.97 28.13 30.18 27.09 27.31 25.88 25.71 24.98 19.18 21.61 24.06 26.40 21.39 19.34 20.04 19.75 23.50 23.11 18.04 19.67 23.29 26.17
32.40 31.50 30.72 30.18 29.85 27.74 28.12 28.41 26.58 25.96 26.56 26.03 23.32 18.20 15.74 18.06 22.09 28.82 18.97 19.25 22.27 21.81 22.15 21.18 18.94 21.53 25.81

GFSFLT2_sfc_wetblb_105.txt.gz
Wetbulb
50.58 50.25 51.56 52.49 51.70 53.60 53.40 54.40 55.25 55.24 54.44 53.44 53.18 53.09 53.19 52.95 52.38 51.43 50.37 49.79 49.31 49.34 49.17 48.94 49.20 49.56 50.44
47.65 47.20 49.02 51.41 50.64 49.78 49.31 50.34 51.77 53.12 53.18 52.27 51.83 51.64 51.25 51.05 50.22 49.28 48.18 47.57 46.83 46.70 46.40 46.62 47.31 48.17 49.23
45.08 46.36 45.71 48.77 47.34 47.32 47.27 46.87 47.31 50.74 52.35 51.61 51.13 50.74 50.41 49.80 48.77 47.67 46.48 45.51 44.55 43.77 43.63 43.60 44.65 45.94 47.37
46.51 45.33 44.75 45.77 47.50 45.14 43.09 44.45 44.00 45.81 48.85 49.54 50.29 49.95 49.97 49.52 48.11 46.31 44.86 43.74 43.31 42.98 42.65 41.72 42.11 43.90 45.41
45.69 43.81 43.20 43.90 44.94 45.20 44.68 43.06 41.75 41.60 43.85 46.57 47.94 48.16 48.88 49.41 47.21 45.08 43.50 42.75 42.39 42.01 41.83 41.09 41.33 42.65 43.96
48.21 46.46 46.22 46.57 46.66 44.73 42.83 40.06 38.38 41.66 41.69 42.27 45.57 44.88 45.59 45.81 46.48 44.50 43.60 42.76 41.71 41.27 40.93 40.26 40.67 42.74 44.23
49.99 48.45 48.60 47.64 46.23 43.55 42.89 43.55 43.86 40.24 41.91 39.66 40.10 40.85 41.32 41.78 45.43 44.44 43.59 42.19 41.26 40.70 40.36 39.53 41.75 41.45 41.54
50.23 51.67 51.22 48.96 48.51 46.96 45.99 43.53 36.56 38.84 41.60 37.32 36.55 38.19 37.82 39.35 44.19 44.39 43.25 41.89 40.61 40.33 40.25 41.09 39.84 40.09 40.52
47.50 48.77 49.14 48.49 48.57 45.43 40.67 38.82 34.12 34.18 37.20 35.36 32.55 32.43 33.27 34.95 38.45 44.20 42.99 41.43 40.31 40.53 41.37 39.50 39.36 38.52 39.20
45.16 46.24 47.47 47.41 46.86 46.02 42.23 41.05 34.36 32.51 35.16 34.17 31.49 31.76 31.89 32.09 34.64 38.00 40.76 40.85 39.94 40.79 40.29 39.25 38.44 36.29 36.91
41.58 42.05 43.11 44.15 44.78 45.21 43.22 43.60 38.46 35.85 36.16 34.32 32.24 31.05 31.52 27.65 29.85 32.38 35.61 38.09 38.37 39.73 39.54 38.95 37.94 35.83 35.58
37.87 38.06 38.76 40.48 41.84 40.25 41.86 41.63 41.00 36.05 38.28 34.25 32.33 32.57 29.54 27.39 27.94 29.56 31.98 34.73 36.26 36.60 36.74 36.33 38.02 36.92 35.20
36.19 37.09 38.28 38.52 34.37 33.23 32.58 32.21 32.71 35.81 37.50 34.09 34.16 32.17 33.34 31.31 28.49 29.56 30.03 32.13 33.87 35.01 34.11 34.17 35.22 34.59 35.40
36.90 36.49 32.81 33.22 33.29 32.37 32.28 32.86 31.30 27.84 29.20 32.32 32.81 33.03 30.57 31.24 30.88 29.87 31.46 31.13 32.16 33.62 33.85 33.46 32.81 33.21 33.35
34.52 32.31 32.86 33.10 32.26 32.29 31.98 32.41 31.06 27.89 27.49 26.70 27.97 29.89 31.89 29.22 28.73 30.55 28.78 28.06 31.99 32.22 31.52 31.26 31.88 32.96 32.77
34.58 33.40 32.66 32.62 32.53 31.88 32.64 32.50 30.13 29.34 27.69 26.20 26.85 28.53 29.18 29.36 30.45 28.13 28.47 28.41 29.17 30.49 31.41 31.17 30.81 31.92 32.25
32.88 32.48 32.57 31.94 32.10 30.33 31.19 31.72 30.11 29.75 28.17 27.12 28.06 30.77 28.04 26.29 28.08 29.95 29.05 28.39 28.56 29.11 30.30 30.58 30.86 31.23 31.42

GFSFLT2_sfc_wetblb_108.txt.gz
Wetbulb
58.02 56.49 54.35 54.62 53.79 55.08 56.09 56.07 56.86 56.76 57.90 56.36 55.81 55.66 55.86 55.76 55.69 55.33 54.18 53.36 52.92 52.63 52.34 51.76 51.38 51.08 51.07
56.17 53.04 52.43 54.20 54.17 53.27 53.85 54.33 55.80 55.52 56.04 55.21 54.78 54.53 54.39 54.16 53.56 53.28 52.28 51.53 50.99 50.33 49.85 49.50 49.55 49.50 49.81
54.79 48.23 49.21 49.77 49.03 50.17 50.00 49.30 51.74 52.64 54.80 54.00 53.64 53.19 52.91 52.60 52.22 51.28 50.17 49.09 48.21 47.22 46.80 46.58 46.58 47.14 47.41
51.16 45.48 46.24 46.46 48.74 46.44 44.41 46.11 46.28 49.48 51.66 51.75 52.31 51.93 51.65 51.31 50.48 49.05 47.76 47.22 46.27 45.19 44.38 43.57 43.33 43.57 45.18
46.89 44.83 44.96 45.19 45.70 46.80 46.37 45.43 42.86 44.14 47.29 48.45 49.35 49.45 49.94 50.46 48.80 47.26 46.52 45.59 44.94 44.53 43.96 43.47 42.59 42.34 43.81
48.72 48.39 47.52 48.11 47.61 45.88 45.02 41.14 39.15 42.57 44.44 44.62 47.60 46.81 48.02 49.58 48.90 47.45 45.90 44.92 44.11 43.59 43.14 42.36 41.51 41.73 44.28
45.91 47.69 49.86 49.19 48.06 45.42 45.12 44.45 45.14 42.26 44.91 42.24 44.11 44.15 46.66 47.64 48.28 46.86 45.87 44.97 44.15 43.18 42.25 41.45 40.88 42.69 42.46
47.27 48.48 49.61 52.09 49.51 47.94 47.43 45.72 40.45 41.21 45.67 41.27 40.50 41.79 43.26 44.13 47.43 46.68 45.66 44.78 43.70 42.63 41.69 40.98 41.78 41.16 41.04
44.73 45.74 46.43 47.63 49.63 48.90 44.87 40.80 35.17 35.62 43.06 36.88 34.67 34.63 36.85 38.96 43.79 46.15 45.33 44.56 43.34 42.19 41.50 41.49 40.96 40.47 40.29
42.91 43.58 45.14 47.55 47.31 48.96 45.70 42.21 41.22 34.71 38.02 39.74 32.86 33.01 32.47 33.83 38.28 42.07 43.59 44.30 42.94 41.70 41.43 41.36 40.31 39.36 39.26
40.24 41.97 42.54 43.57 45.90 47.54 48.01 45.16 41.62 39.49 38.46 38.87 33.77 32.92 33.96 29.81 32.65 37.02 40.55 40.60 40.04 40.68 41.62 40.97 39.93 38.48 37.30
36.96 37.51 38.96 40.22 41.86 44.20 45.37 44.01 46.15 43.70 39.18 42.20 33.90 36.19 31.90 29.75 29.32 32.17 34.73 38.18 39.10 38.71 39.92 39.72 39.52 38.08 37.52
34.16 36.05 38.43 40.45 37.80 33.58 32.88 33.96 33.18 35.39 38.10 40.28 36.72 36.47 37.45 33.84 30.96 31.38 31.78 33.91 36.46 37.89 37.40 36.40 37.18 37.09 35.38
34.27 36.11 37.87 34.28 34.15 33.61 33.58 34.25 33.32 31.26 30.94 33.45 34.31 36.47 34.97 33.89 33.66 32.53 35.27 32.57 35.41 36.85 36.66 36.34 36.86 36.31 37.52
33.42 33.53 34.78 34.54 33.67 33.45 33.90 33.78 33.53 30.81 30.31 29.33 30.54 33.26 34.51 32.76 33.17 33.70 33.88 34.20 34.82 35.23 35.07 33.74 34.16 34.65 34.78
32.11 32.59 33.30 33.41 33.30 32.23 32.75 33.25 33.62 31.87 28.97 27.37 28.75 29.18 30.01 29.86 34.84 33.50 33.95 33.04 33.11 33.44 34.60 32.82 32.43 34.43 34.76
31.86 32.11 32.43 32.65 32.52 32.11 31.90 32.12 32.47 31.96 30.47 28.64 30.65 31.71 29.85 29.32 29.48 34.64 32.33 31.95 31.12 30.30 33.25 34.10 33.44 33.50 33.80

GFSFLT2_sfc_wetblb_111.txt.gz
Wetbulb
56.64 57.19 54.94 55.56 55.15 56.18 56.57 56.69 57.30 56.09 57.66 57.44 56.89 56.96 58.03 58.81 58.68 58.50 57.94 57.34 56.45 55.80 55.34 54.65 54.08 53.01 52.24
55.97 52.89 53.77 54.22 55.48 54.64 54.64 55.48 56.39 55.81 55.88 56.30 56.31 56.24 57.22 56.89 56.49 56.10 55.40 55.19 54.68 54.14 53.67 53.23 52.40 51.62 51.00
53.52 52.70 53.20 50.66 51.19 52.21 52.66 53.63 53.70 53.34 55.68 55.84 56.56 56.48 56.19 55.36 54.91 54.22 53.25 52.71 52.16 51.64 51.39 50.69 49.83 49.30 48.98
48.23 48.42 47.38 47.15 49.19 47.35 45.81 46.41 49.10 49.65 53.43 54.90 55.66 54.76 54.43 54.06 53.21 51.54 50.38 50.43 50.30 49.29 48.36 47.31 46.20 45.53 45.68
45.39 45.74 44.94 44.74 45.47 46.91 47.47 45.94 44.56 45.68 48.54 49.76 51.36 51.52 52.17 52.44 50.66 49.23 49.19 48.98 48.64 47.72 46.66 45.63 44.43 43.80 43.67
42.10 43.33 45.69 46.72 46.97 46.06 45.05 40.98 39.76 44.06 46.28 47.00 49.59 48.65 49.64 50.15 49.96 49.01 48.32 47.99 47.31 46.29 45.59 45.06 44.00 42.94 42.71
40.19 42.16 44.62 46.76 48.26 44.98 44.58 42.96 44.44 43.55 47.15 45.16 45.43 45.65 47.90 48.59 49.29 48.34 47.70 47.16 46.47 45.52 44.73 43.98 42.97 42.08 42.71
39.61 40.65 42.64 44.09 44.28 44.76 46.83 46.47 41.86 41.10 47.01 44.24 43.32 44.66 45.65 46.97 49.06 48.20 47.32 46.75 46.00 45.42 44.34 43.32 42.27 41.86 42.78
39.96 41.24 42.08 43.87 44.37 44.14 42.14 42.58 40.57 36.89 42.78 41.30 36.92 38.97 39.82 40.50 46.84 48.02 47.15 46.63 46.05 45.46 44.18 42.89 41.81 42.07 40.41
35.04 36.75 39.36 40.59 43.71 43.37 43.35 41.58 42.24 36.22 38.19 39.83 34.06 33.92 33.83 34.90 39.20 45.87 45.62 46.38 45.73 44.78 43.74 42.57 42.17 37.57 36.14
32.66 33.84 35.99 37.57 39.46 41.65 42.95 42.15 41.75 41.54 38.99 41.80 35.17 34.25 34.21 31.18 34.71 41.33 43.28 43.52 42.71 42.73 43.31 42.45 42.04 39.29 34.99
31.81 32.59 33.64 34.85 36.26 38.30 40.16 41.78 43.79 43.65 40.60 43.04 34.17 39.17 35.31 29.79 30.89 34.87 40.21 41.97 40.73 38.90 38.50 41.45 41.66 40.87 39.73
30.26 31.13 32.53 34.42 35.21 36.98 37.76 35.95 35.80 35.50 38.38 41.39 40.34 37.78 38.51 35.39 30.31 32.83 35.58 37.36 38.42 37.26 37.44 37.45 36.21 34.54 33.39
30.47 31.77 32.58 32.33 32.82 35.37 35.80 36.82 34.94 36.59 32.49 37.27 38.48 36.92 37.22 36.10 34.70 32.71 36.97 32.72 36.25 36.77 36.60 35.77 34.74 34.49 33.22
29.36 29.47 29.83 31.11 31.54 34.61 34.67 34.67 33.43 34.98 30.67 31.26 33.13 35.56 34.93 33.83 33.38 34.26 34.67 32.87 35.62 35.25 34.56 33.17 33.60 33.40 33.56
28.59 29.45 29.91 30.59 30.39 32.47 33.23 32.59 32.16 33.28 33.02 29.29 31.70 31.20 31.19 31.54 34.26 33.89 34.21 33.00 34.45 34.23 34.37 32.37 31.05 32.05 31.64
28.23 28.25 29.87 31.02 31.46 31.21 32.27 31.72 31.61 32.64 32.75 30.57 31.85 32.95 30.37 29.81 28.58 35.67 33.18 32.82 33.00 32.60 33.22 32.19 30.69 31.18 31.57

GFSFLT2_sfc_wetblb_114.txt.gz
Wetbulb
53.14 56.94 56.23 57.13 56.59 58.24 57.60 57.70 57.71 56.58 58.19 58.11 57.84 57.50 57.60 57.92 58.28 59.05 60.16 61.01 60.90 60.64 59.62 58.25 56.86 55.84 54.88
48.35 50.24 54.65 56.06 56.62 56.05 56.11 56.44 56.69 55.87 56.25 56.88 56.56 56.33 56.37 56.53 56.63 57.54 58.31 58.83 58.36 58.19 57.63 56.70 55.92 55.13 54.15
45.29 48.32 50.93 50.90 52.09 52.62 53.25 54.54 54.40 53.71 56.12 56.14 56.32 56.40 56.18 55.97 56.15 56.84 56.50 56.10 55.39 54.83 54.86 54.83 54.64 53.67 52.82
42.97 44.94 47.17 47.80 48.38 48.08 48.18 48.02 50.32 49.74 52.23 53.73 55.00 55.11 55.62 55.88 55.43 54.91 53.97 53.89 53.73 53.38 52.62 51.88 51.41 51.23 50.60
39.19 40.33 42.35 44.38 45.77 47.10 46.65 48.34 45.98 46.95 48.92 50.90 52.42 53.90 54.86 54.91 54.34 52.03 51.98 52.01 51.82 51.70 51.16 49.98 48.78 48.04 47.46
36.80 37.05 39.15 42.07 43.92 44.07 44.94 42.17 40.42 45.01 45.78 47.68 50.21 49.85 51.58 53.57 52.16 51.33 50.88 50.75 50.28 49.85 49.45 48.46 46.60 45.62 45.35
35.00 35.47 35.76 37.77 39.91 38.93 40.10 41.27 43.37 45.74 44.94 44.67 44.83 45.96 48.84 49.83 50.64 50.09 50.05 49.56 49.08 48.47 47.71 47.06 45.92 45.06 44.37
33.67 34.06 35.29 37.26 38.46 39.30 40.13 40.28 42.62 42.52 45.04 41.70 42.14 44.42 44.84 47.19 49.84 49.41 48.95 48.53 47.94 47.29 46.77 46.24 45.29 44.26 43.34
36.80 37.27 37.65 38.16 38.17 36.91 35.55 35.78 36.86 38.50 40.77 41.35 38.38 39.47 39.17 42.50 47.37 48.90 48.50 48.03 47.40 46.93 46.40 45.55 44.49 43.22 42.03
32.10 33.03 34.18 34.01 37.62 36.24 36.14 34.93 35.42 36.27 38.34 39.02 35.51 35.42 35.33 36.56 39.08 47.10 47.24 47.71 47.03 46.60 46.18 45.21 44.09 39.26 36.82
29.30 30.11 31.14 32.59 34.04 35.51 34.62 35.26 34.66 35.09 40.16 39.22 34.94 34.11 34.43 32.92 35.06 40.64 45.66 45.41 44.98 45.25 46.09 45.04 43.88 40.11 35.93
27.28 28.35 28.59 29.71 30.77 32.67 34.17 33.62 35.95 36.55 39.19 40.71 34.57 38.66 34.61 31.99 32.66 34.59 41.73 43.95 43.63 42.24 42.25 43.66 43.59 42.39 40.39
26.96 26.96 26.95 28.06 29.19 30.05 32.91 33.77 34.53 35.68 37.81 38.33 38.64 38.40 39.97 39.11 35.47 33.27 37.85 39.87 41.69 40.63 39.77 39.64 39.69 39.41 36.86
27.27 28.13 27.31 25.22 27.82 30.15 30.20 31.88 31.53 32.84 35.85 36.08 36.50 38.18 37.73 39.48 38.27 33.31 38.52 35.61 39.21 39.10 38.35 38.62 38.55 37.60 36.14
27.17 27.34 27.57 27.52 27.72 30.22 30.81 30.84 29.92 30.58 33.27 33.42 33.83 36.04 38.14 37.33 35.94 36.80 37.03 35.24 38.15 37.64 36.63 35.51 35.32 35.52 34.91
27.31 26.20 25.99 25.73 26.03 28.21 30.41 30.26 29.36 29.73 32.02 34.11 32.35 31.79 31.18 32.32 36.73 35.37 36.63 36.17 36.31 36.40 36.87 33.94 32.69 34.15 34.68
25.39 24.94 24.46 25.68 26.56 26.50 27.73 29.25 30.20 30.97 31.06 32.94 31.68 32.12 31.17 30.61 31.28 35.57 35.37 34.80 34.62 33.70 34.85 34.70 32.80 32.30 33.67

GFSFLT2_sfc_wetblb_117.txt.gz
Wetbulb
47.89 49.88 50.32 50.42 53.00 57.06 58.96 59.33 59.94 56.77 58.72 58.54 58.06 57.88 57.71 57.86 58.47 59.17 59.65 60.32 61.47 62.70 63.12 62.22 60.85 59.38 57.73
43.72 45.34 46.77 50.00 51.13 51.92 55.12 57.38 58.14 56.57 56.63 57.01 56.90 56.63 56.74 57.01 56.66 56.96 57.29 58.06 58.93 60.44 61.14 60.80 60.17 58.62 57.45
39.78 43.24 45.54 47.67 48.26 50.03 50.41 51.42 53.48 52.41 55.64 56.02 56.40 56.53 56.03 55.98 55.85 55.58 54.95 55.45 56.24 57.20 58.47 58.49 58.22 57.70 56.79
38.13 38.90 40.66 42.98 45.35 45.50 45.04 48.11 48.79 50.31 51.59 52.73 54.30 54.79 55.34 55.78 55.28 53.97 53.19 54.02 55.49 56.82 56.45 55.55 54.91 55.29 55.63
35.31 36.07 36.85 38.52 38.11 40.22 40.18 41.61 44.36 47.34 47.65 49.00 50.65 51.98 53.03 53.75 53.05 52.08 52.60 53.54 54.52 55.65 55.37 54.43 53.18 53.25 53.42
32.94 32.57 33.39 34.87 36.17 36.26 37.10 37.07 37.86 45.67 44.42 45.35 48.93 49.33 51.04 52.73 53.04 52.55 52.54 52.75 53.61 54.05 53.30 52.73 51.68 51.18 50.98
31.10 30.60 31.29 32.94 33.74 33.43 34.22 34.71 36.05 39.88 40.71 40.28 45.21 46.60 49.66 50.22 51.01 51.64 52.37 52.00 52.00 51.54 50.89 50.29 49.60 48.99 48.23
31.54 32.06 32.91 34.07 34.11 33.76 33.51 34.18 35.92 36.66 39.78 38.61 43.26 43.70 45.54 47.22 49.54 50.31 50.33 50.39 49.97 49.70 49.50 48.72 47.56 46.96 46.54
37.12 37.26 36.87 36.72 36.06 33.66 31.83 31.35 30.75 32.73 36.02 38.06 39.46 39.02 39.49 41.93 45.53 49.53 49.67 49.55 49.27 49.03 48.65 47.56 46.50 46.22 45.11
30.64 31.12 32.72 32.18 35.65 33.14 32.82 31.53 31.53 30.16 34.32 35.42 36.14 36.42 36.84 38.06 39.53 46.08 48.39 49.02 48.58 48.29 47.79 46.97 45.95 42.68 39.91
27.61 27.98 28.86 29.70 31.09 31.62 32.48 31.24 29.86 30.14 33.67 34.90 34.59 35.45 33.90 35.72 35.14 38.44 44.52 46.03 46.51 46.82 47.23 46.40 45.32 41.98 38.27
26.36 26.53 26.69 27.10 27.64 28.08 28.87 29.32 30.06 30.42 32.98 33.36 32.05 34.35 34.25 34.66 35.33 35.13 39.62 44.34 44.86 43.48 43.92 45.50 45.35 43.34 41.79
26.07 26.12 26.49 27.63 27.46 25.52 27.64 29.13 29.87 31.72 33.50 33.78 34.02 33.75 34.74 34.09 35.11 33.87 35.82 37.86 42.61 42.55 42.38 42.01 41.58 40.45 38.75
25.68 26.51 27.30 22.83 24.79 25.31 26.04 27.49 28.72 29.01 30.61 33.57 34.27 34.23 32.64 34.03 35.85 36.78 36.92 36.13 40.11 41.10 40.89 41.05 41.16 40.40 39.23
25.67 26.11 27.14 26.82 27.09 25.62 25.68 26.23 26.44 28.13 28.86 30.24 33.28 34.44 35.05 34.61 33.99 36.70 38.33 38.52 38.52 39.91 38.39 37.74 38.69 39.40 38.60
24.03 23.26 23.88 25.12 24.14 24.54 25.52 23.91 23.97 25.35 27.26 30.23 31.37 31.83 32.25 33.39 36.65 34.65 37.35 38.09 37.43 38.59 38.13 36.55 35.44 37.13 37.64
16.46 18.08 21.62 22.91 24.11 22.84 22.82 24.11 24.59 26.04 26.76 29.47 31.38 30.16 28.23 27.00 33.27 37.87 35.51 36.97 36.13 36.18 36.97 36.84 34.64 34.51 35.93